FW3681 Weather Reports


Display with metric or nautical units.
time (UTC)temp
F
wind
direction
speed
MPH
gust
MPH
rain 1hr
in
rain 24hr
in
rain mn
in
humidity
%
barometer
mb
20260904111859 77 356 3.0 4.0 0.00 0.00 0.00 88 1014.6
20260904111759 77 359 1.0 4.0 0.00 0.00 0.00 88 1014.7
20260904111700 77 296 1.0 4.0 0.00 0.00 0.00 88 1014.7
20260904111559 77 41 0.0 4.0 0.00 0.00 0.00 88 1014.7
20260904111502 77 342 1.0 4.0 0.00 0.00 0.00 88 1014.7
20260904111359 77 335 1.0 4.0 0.00 0.00 0.00 88 1014.7
20260904111259 77 113 4.0 4.0 0.00 0.00 0.00 88 1014.7
20260904111158 77 8 1.0 3.0 0.00 0.00 0.00 88 1014.7
20260904111058 77 296 0.0 3.0 0.00 0.00 0.00 88 1014.7
20260904111002 77 316 3.0 4.0 0.00 0.00 0.00 88 1014.6
20260904110858 77 335 1.0 4.0 0.00 0.00 0.00 88 1014.7
20260904110558 77 330 0.0 4.0 0.00 0.00 0.00 88 1014.6
20260904110500 77 270 0.0 4.0 0.00 0.00 0.00 88 1014.6
20260904110358 77 349 1.0 4.0 0.00 0.00 0.00 88 1014.7
20260904110259 77 340 2.0 4.0 0.00 0.00 0.00 88 1014.7
20260904110158 77 358 2.0 4.0 0.00 0.00 0.00 88 1014.7
20260904110058 77 1 3.0 4.0 0.00 0.00 0.00 88 1014.7
20260904105959 77 316 0.0 4.0 0.00 0.00 0.00 88 1014.6
20260904105857 77 336 2.0 4.0 0.00 0.00 0.00 88 1014.6
20260904105757 77 309 0.0 4.0 0.00 0.00 0.00 88 1014.6
20260904105558 77 342 1.0 4.0 0.00 0.00 0.00 88 1014.6
20260904105500 77 296 3.0 4.0 0.00 0.00 0.00 88 1014.6
20260904105357 77 132 0.0 3.0 0.00 0.00 0.00 88 1014.6
20260904105257 77 184 0.0 3.0 0.00 0.00 0.00 88 1014.6
20260904105158 77 157 2.0 3.0 0.00 0.00 0.00 88 1014.6
20260904105057 77 17 0.0 4.0 0.00 0.00 0.00 88 1014.6
20260904105000 77 316 0.0 4.0 0.00 0.00 0.00 88 1014.6
20260904104857 77 307 2.0 4.0 0.00 0.00 0.00 88 1014.6
20260904104757 77 44 1.0 4.0 0.00 0.00 0.00 88 1014.6
20260904104657 77 354 1.0 4.0 0.00 0.00 0.00 88 1014.6
20260904104458 77 58 2.0 4.0 0.00 0.00 0.00 88 1014.6
20260904104157 77 338 1.0 4.0 0.00 0.00 0.00 88 1014.7
20260904104057 77 302 2.0 4.0 0.00 0.00 0.00 88 1014.7
20260904104000 77 132 0.0 4.0 0.00 0.00 0.00 88 1014.7
20260904103857 77 337 1.0 4.0 0.00 0.00 0.00 88 1014.7
20260904103757 77 34 1.0 4.0 0.00 0.00 0.00 88 1014.8
20260904103657 77 333 2.0 4.0 0.00 0.00 0.00 88 1014.8
20260904103558 77 321 2.0 4.0 0.00 0.00 0.00 88 1014.7
20260904103459 77 321 2.0 4.0 0.00 0.00 0.00 88 1014.8
20260904103357 77 330 2.0 4.0 0.00 0.00 0.00 88 1014.6
20260904103257 77 342 0.0 4.0 0.00 0.00 0.00 88 1014.6
20260904103057 77 10 0.0 3.0 0.00 0.00 0.00 87 1014.7
20260904103000 77 338 2.0 3.0 0.00 0.00 0.00 87 1014.6
20260904102858 77 344 2.0 3.0 0.00 0.00 0.00 87 1014.7
20260904102756 77 186 1.0 3.0 0.00 0.00 0.00 87 1014.7
20260904102657 77 143 1.0 3.0 0.00 0.00 0.00 87 1014.7
20260904102557 77 345 2.0 3.0 0.00 0.00 0.00 87 1014.7
20260904102459 77 342 2.0 3.0 0.00 0.00 0.00 87 1014.7
20260904102358 77 329 2.0 3.0 0.00 0.00 0.00 87 1014.6
20260904102258 77 323 2.0 3.0 0.00 0.00 0.00 87 1014.6
20260904102157 77 290 2.0 3.0 0.00 0.00 0.00 87 1014.5
20260904102000 77 335 1.0 3.0 0.00 0.00 0.00 87 1014.6
20260904101857 77 333 2.0 3.0 0.00 0.00 0.00 87 1014.5
20260904101757 77 316 2.0 3.0 0.00 0.00 0.00 87 1014.5
20260904101657 77 345 2.0 3.0 0.00 0.00 0.00 87 1014.5
20260904101557 77 319 1.0 3.0 0.00 0.00 0.00 87 1014.5
20260904101500 77 326 0.0 3.0 0.00 0.00 0.00 87 1014.5
20260904101257 77 344 2.0 3.0 0.00 0.00 0.00 87 1014.5
20260904101057 77 321 2.0 3.0 0.00 0.00 0.00 87 1014.5
20260904101000 77 307 0.0 3.0 0.00 0.00 0.00 87 1014.4
20260904100858 77 309 2.0 3.0 0.00 0.00 0.00 87 1014.5
20260904100658 77 349 2.0 3.0 0.00 0.00 0.00 87 1014.4
20260904100557 77 321 3.0 3.0 0.00 0.00 0.00 87 1014.4
20260904100458 77 316 2.0 3.0 0.00 0.00 0.00 87 1014.4
20260904100358 77 328 2.0 3.0 0.00 0.00 0.00 87 1014.4
20260904100258 77 349 2.0 3.0 0.00 0.00 0.00 87 1014.4
20260904100157 77 326 2.0 3.0 0.00 0.00 0.00 87 1014.4
20260904100003 77 314 3.0 3.0 0.00 0.00 0.00 87 1014.4
20260904095858 77 321 1.0 3.0 0.00 0.00 0.00 87 1014.4
20260904095657 77 273 0.0 3.0 0.00 0.00 0.00 87 1014.4
20260904095557 77 281 1.0 3.0 0.00 0.00 0.00 87 1014.4
20260904095458 77 324 2.0 4.0 0.00 0.00 0.00 87 1014.4
20260904095358 77 323 2.0 4.0 0.00 0.00 0.00 87 1014.4
20260904095257 77 314 3.0 4.0 0.00 0.00 0.00 87 1014.4
20260904095157 77 342 1.0 4.0 0.00 0.00 0.00 87 1014.3
20260904095058 77 336 2.0 4.0 0.00 0.00 0.00 87 1014.4
20260904094857 77 335 1.0 4.0 0.00 0.00 0.00 87 1014.4
20260904094757 77 356 3.0 4.0 0.00 0.00 0.00 87 1014.4
20260904094557 77 342 2.0 3.0 0.00 0.00 0.00 87 1014.5
20260904094459 77 352 2.0 3.0 0.00 0.00 0.00 87 1014.5
20260904094357 77 328 2.0 3.0 0.00 0.00 0.00 87 1014.6
20260904094257 77 335 2.0 3.0 0.00 0.00 0.00 87 1014.6
20260904094158 77 323 2.0 3.0 0.00 0.00 0.00 87 1014.6
20260904094057 77 347 1.0 3.0 0.00 0.00 0.00 87 1014.5
20260904094000 77 331 3.0 3.0 0.00 0.00 0.00 87 1014.6
20260904093857 77 309 2.0 3.0 0.00 0.00 0.00 87 1014.5
20260904093757 77 329 2.0 3.0 0.00 0.00 0.00 87 1014.5
20260904093658 77 342 2.0 3.0 0.00 0.00 0.00 87 1014.5
20260904093357 77 303 1.0 3.0 0.00 0.00 0.00 87 1014.5
20260904093256 77 300 0.0 3.0 0.00 0.00 0.00 87 1014.5
20260904093157 77 310 0.0 3.0 0.00 0.00 0.00 87 1014.5
20260904092959 77 349 2.0 3.0 0.00 0.00 0.00 87 1014.5
20260904092858 77 316 0.0 3.0 0.00 0.00 0.00 87 1014.5
20260904092757 77 356 2.0 3.0 0.00 0.00 0.00 87 1014.5
20260904092557 77 330 1.0 3.0 0.00 0.00 0.00 87 1014.5
20260904092458 77 330 2.0 3.0 0.00 0.00 0.00 87 1014.4
20260904092357 77 310 1.0 3.0 0.00 0.00 0.00 87 1014.5
20260904092257 77 349 3.0 3.0 0.00 0.00 0.00 87 1014.4
20260904092156 77 303 2.0 3.0 0.00 0.00 0.00 87 1014.4
20260904092057 77 340 2.0 3.0 0.00 0.00 0.00 87 1014.5
20260904091858 77 316 1.0 3.0 0.00 0.00 0.00 87 1014.4
20260904091758 77 333 3.0 3.0 0.00 0.00 0.00 87 1014.5
20260904091657 77 321 2.0 3.0 0.00 0.00 0.00 87 1014.4
20260904091556 77 328 2.0 3.0 0.00 0.00 0.00 87 1014.4
20260904091458 78 321 2.0 3.0 0.00 0.00 0.00 87 1014.4
20260904091358 78 321 2.0 3.0 0.00 0.00 0.00 87 1014.4
20260904091258 78 298 0.0 3.0 0.00 0.00 0.00 87 1014.4
20260904091157 77 282 2.0 3.0 0.00 0.00 0.00 87 1014.4
20260904091057 77 319 0.0 3.0 0.00 0.00 0.00 87 1014.3
20260904090857 77 323 1.0 3.0 0.00 0.00 0.00 86 1014.3
20260904090758 77 264 2.0 3.0 0.00 0.00 0.00 86 1014.2
20260904090657 78 286 3.0 3.0 0.00 0.00 0.00 86 1014.2
20260904090558 78 295 2.0 3.0 0.00 0.00 0.00 86 1014.2
20260904090458 78 314 2.0 3.0 0.00 0.00 0.00 86 1014.1
20260904090356 78 309 2.0 3.0 0.00 0.00 0.00 86 1014.2
20260904090257 78 316 2.0 3.0 0.00 0.00 0.00 86 1014.2
20260904090057 78 333 2.0 3.0 0.00 0.00 0.00 86 1014.2
20260904090002 77 310 2.0 3.0 0.00 0.00 0.00 86 1014.2
20260904085857 77 330 2.0 3.0 0.00 0.00 0.00 86 1014.2
20260904085757 78 333 0.0 2.0 0.00 0.00 0.00 86 1014.1
20260904085657 78 340 1.0 2.0 0.00 0.00 0.00 86 1014.2
20260904085557 78 340 2.0 2.0 0.00 0.00 0.00 86 1014.2
20260904085458 78 342 1.0 2.0 0.00 0.00 0.00 86 1014.2
20260904085357 78 326 1.0 2.0 0.00 0.00 0.00 86 1014.3
20260904085257 78 309 1.0 2.0 0.00 0.00 0.00 86 1014.3
20260904085158 78 326 0.0 2.0 0.00 0.00 0.00 86 1014.3
20260904085000 78 340 2.0 2.0 0.00 0.00 0.00 86 1014.4
20260904084858 78 319 2.0 3.0 0.00 0.00 0.00 86 1014.4
20260904084758 78 335 1.0 3.0 0.00 0.00 0.00 86 1014.3
20260904084657 78 310 2.0 3.0 0.00 0.00 0.00 86 1014.4
20260904084558 78 333 0.0 3.0 0.00 0.00 0.00 86 1014.4
20260904084459 78 330 1.0 3.0 0.00 0.00 0.00 86 1014.3
20260904084357 78 329 2.0 3.0 0.00 0.00 0.00 86 1014.3
20260904084257 78 326 1.0 3.0 0.00 0.00 0.00 86 1014.2
20260904084056 78 324 2.0 3.0 0.00 0.00 0.00 86 1014.3
20260904084000 78 338 2.0 3.0 0.00 0.00 0.00 86 1014.2
20260904083857 78 298 2.0 3.0 0.00 0.00 0.00 86 1014.2
20260904083757 78 321 2.0 3.0 0.00 0.00 0.00 86 1014.2
20260904083658 78 316 1.0 3.0 0.00 0.00 0.00 86 1014.2
20260904083557 78 285 3.0 3.0 0.00 0.00 0.00 86 1014.2
20260904083459 78 278 3.0 3.0 0.00 0.00 0.00 86 1014.3
20260904083358 78 286 2.0 3.0 0.00 0.00 0.00 86 1014.2
20260904083257 78 303 1.0 3.0 0.00 0.00 0.00 86 1014.2
20260904083157 78 296 0.0 3.0 0.00 0.00 0.00 86 1014.2
20260904083058 78 309 1.0 3.0 0.00 0.00 0.00 86 1014.1
20260904083000 78 331 2.0 3.0 0.00 0.00 0.00 86 1014.2
20260904082857 78 328 2.0 3.0 0.00 0.00 0.00 86 1014.2
20260904082758 78 317 2.0 3.0 0.00 0.00 0.00 86 1014.1
20260904082657 78 314 2.0 3.0 0.00 0.00 0.00 86 1014.1
20260904082557 78 311 2.0 3.0 0.00 0.00 0.00 86 1014.1
20260904082457 78 314 1.0 3.0 0.00 0.00 0.00 86 1014.1
20260904082357 78 314 2.0 3.0 0.00 0.00 0.00 86 1013.9
20260904082257 78 297 2.0 3.0 0.00 0.00 0.00 86 1014.0
20260904081858 78 316 2.0 2.0 0.00 0.00 0.00 86 1013.9
20260904081758 78 319 2.0 2.0 0.00 0.00 0.00 86 1014.0
20260904081658 78 331 2.0 2.0 0.00 0.00 0.00 86 1014.0
20260904081557 78 321 0.0 2.0 0.00 0.00 0.00 86 1014.0
20260904081459 78 316 2.0 2.0 0.00 0.00 0.00 86 1014.0
20260904081358 78 319 2.0 2.0 0.00 0.00 0.00 86 1014.0
20260904081257 78 314 2.0 2.0 0.00 0.00 0.00 86 1014.0
20260904081057 78 303 0.0 2.0 0.00 0.00 0.00 86 1014.0
20260904080857 78 321 0.0 2.0 0.00 0.00 0.00 86 1014.0
20260904080756 78 314 1.0 2.0 0.00 0.00 0.00 86 1014.1
20260904080657 78 302 1.0 2.0 0.00 0.00 0.00 86 1014.1
20260904080557 78 298 0.0 2.0 0.00 0.00 0.00 86 1014.1
20260904080458 78 293 2.0 2.0 0.00 0.00 0.00 85 1014.1
20260904080358 78 287 0.0 2.0 0.00 0.00 0.00 86 1014.2
20260904080258 78 314 2.0 2.0 0.00 0.00 0.00 85 1014.1
20260904080157 78 309 2.0 2.0 0.00 0.00 0.00 85 1014.1
20260904080057 78 360 2.0 2.0 0.00 0.00 0.00 85 1014.1
20260904080002 78 314 2.0 2.0 0.00 0.00 0.00 85 1014.1
20260904075857 78 300 1.0 2.0 0.00 0.00 0.00 85 1014.1
20260904075757 78 301 0.0 2.0 0.00 0.00 0.00 85 1014.1
20260904075657 78 311 0.0 2.0 0.00 0.00 0.00 85 1014.1
20260904075557 78 316 0.0 2.0 0.00 0.00 0.00 85 1014.1
20260904075459 78 304 0.0 2.0 0.00 0.00 0.00 85 1014.1
20260904075357 78 323 0.0 2.0 0.00 0.00 0.00 85 1014.1
20260904075257 78 307 2.0 2.0 0.00 0.00 0.00 85 1014.0
20260904075157 78 319 1.0 3.0 0.00 0.00 0.00 85 1014.1
20260904075057 78 312 2.0 3.0 0.00 0.00 0.00 85 1014.1
20260904075000 78 316 2.0 3.0 0.00 0.00 0.00 85 1014.1
20260904074658 78 302 2.0 3.0 0.00 0.00 0.00 85 1014.1
20260904074557 78 307 2.0 3.0 0.00 0.00 0.00 85 1014.1
20260904074500 78 312 2.0 3.0 0.00 0.00 0.00 85 1014.1
20260904074357 78 333 0.0 3.0 0.00 0.00 0.00 85 1014.1
20260904074258 78 300 2.0 3.0 0.00 0.00 0.00 85 1014.0
20260904074157 79 319 2.0 3.0 0.00 0.00 0.00 85 1014.1
20260904074057 78 314 2.0 3.0 0.00 0.00 0.00 85 1014.0
20260904073758 79 310 2.0 3.0 0.00 0.00 0.00 85 1014.1
20260904073557 79 314 2.0 3.0 0.00 0.00 0.00 84 1014.0
20260904073458 79 308 2.0 3.0 0.00 0.00 0.00 85 1014.1
20260904073258 79 307 2.0 3.0 0.00 0.00 0.00 84 1014.0
20260904073157 79 312 2.0 3.0 0.00 0.00 0.00 84 1014.0
20260904073058 79 302 2.0 3.0 0.00 0.00 0.00 84 1014.0
20260904072857 79 321 2.0 3.0 0.00 0.00 0.00 84 1014.1
20260904072757 79 316 2.0 3.0 0.00 0.00 0.00 84 1014.1
20260904072557 79 304 2.0 3.0 0.00 0.00 0.00 84 1014.1
20260904072458 79 314 3.0 3.0 0.00 0.00 0.00 85 1014.0
20260904072357 79 319 2.0 3.0 0.00 0.00 0.00 85 1014.0
20260904072256 79 307 2.0 3.0 0.00 0.00 0.00 84 1014.0
20260904072158 79 312 2.0 2.0 0.00 0.00 0.00 84 1014.0
20260904072058 79 310 2.0 2.0 0.00 0.00 0.00 84 1014.1
20260904072000 79 302 2.0 3.0 0.00 0.00 0.00 84 1014.1
20260904071857 79 304 2.0 3.0 0.00 0.00 0.00 84 1014.1
20260904071757 79 307 2.0 3.0 0.00 0.00 0.00 84 1014.2
20260904071658 79 301 1.0 3.0 0.00 0.00 0.00 84 1014.2
20260904071458 79 314 0.0 3.0 0.00 0.00 0.00 84 1014.2
20260904071358 79 319 1.0 3.0 0.00 0.00 0.00 84 1014.2
20260904071257 79 338 2.0 3.0 0.00 0.00 0.00 84 1014.2
20260904071058 79 321 2.0 3.0 0.00 0.00 0.00 84 1014.2
20260904071000 79 336 1.0 3.0 0.00 0.00 0.00 84 1014.2
20260904070856 79 319 2.0 3.0 0.00 0.00 0.00 84 1014.3
20260904070757 79 331 2.0 3.0 0.00 0.00 0.00 84 1014.2
20260904070657 79 326 3.0 3.0 0.00 0.00 0.00 84 1014.2
20260904070557 79 319 2.0 3.0 0.00 0.00 0.00 84 1014.2
20260904070459 79 307 3.0 3.0 0.00 0.00 0.00 84 1014.2
20260904070256 79 319 2.0 3.0 0.00 0.00 0.00 84 1014.2
20260904070057 79 310 2.0 3.0 0.00 0.00 0.00 84 1014.2
20260904070002 79 324 3.0 3.0 0.00 0.00 0.00 84 1014.2
20260904065756 79 288 2.0 3.0 0.00 0.00 0.00 84 1014.3
20260904065657 79 302 2.0 3.0 0.00 0.00 0.00 84 1014.3
20260904065559 79 323 2.0 3.0 0.00 0.00 0.00 84 1014.3
20260904065459 79 323 2.0 3.0 0.00 0.00 0.00 84 1014.3
20260904065257 79 329 2.0 3.0 0.00 0.00 0.00 84 1014.3
20260904065157 79 328 3.0 3.0 0.00 0.00 0.00 84 1014.3
20260904065057 79 326 3.0 3.0 0.00 0.00 0.00 84 1014.4
20260904064959 79 329 2.0 3.0 0.00 0.00 0.00 84 1014.4
20260904064857 79 328 2.0 3.0 0.00 0.00 0.00 84 1014.3
20260904064758 79 324 2.0 3.0 0.00 0.00 0.00 84 1014.4
20260904064659 79 309 2.0 3.0 0.00 0.00 0.00 84 1014.3
20260904064556 80 305 2.0 3.0 0.00 0.00 0.00 84 1014.4
20260904064459 80 321 2.0 3.0 0.00 0.00 0.00 84 1014.4
20260904064357 79 295 1.0 3.0 0.00 0.00 0.00 84 1014.4
20260904064258 79 311 2.0 3.0 0.00 0.00 0.00 84 1014.4
20260904064157 79 331 2.0 3.0 0.00 0.00 0.00 84 1014.5
20260904064057 79 309 2.0 3.0 0.00 0.00 0.00 84 1014.5
20260904064000 79 342 1.0 3.0 0.00 0.00 0.00 84 1014.5
20260904063857 79 307 1.0 3.0 0.00 0.00 0.00 84 1014.5
20260904063757 80 319 2.0 3.0 0.00 0.00 0.00 84 1014.5
20260904063658 80 331 3.0 3.0 0.00 0.00 0.00 84 1014.5
20260904063557 80 319 2.0 3.0 0.00 0.00 0.00 84 1014.4
20260904063458 80 314 3.0 3.0 0.00 0.00 0.00 84 1014.5
20260904063358 80 323 2.0 3.0 0.00 0.00 0.00 84 1014.4
20260904063258 79 324 2.0 3.0 0.00 0.00 0.00 84 1014.4
20260904063157 79 323 2.0 3.0 0.00 0.00 0.00 84 1014.4
20260904063057 79 319 3.0 3.0 0.00 0.00 0.00 84 1014.4
20260904062757 79 330 2.0 3.0 0.00 0.00 0.00 84 1014.4
20260904062657 79 330 2.0 3.0 0.00 0.00 0.00 84 1014.3
20260904062557 79 331 2.0 3.0 0.00 0.00 0.00 84 1014.4
20260904062458 79 344 2.0 3.0 0.00 0.00 0.00 84 1014.3
20260904062357 79 319 2.0 3.0 0.00 0.00 0.00 84 1014.3
20260904062056 79 301 3.0 3.0 0.00 0.00 0.00 84 1014.3
20260904062000 79 296 2.0 3.0 0.00 0.00 0.00 84 1014.3
20260904061857 79 324 2.0 3.0 0.00 0.00 0.00 84 1014.3
20260904061759 79 314 3.0 3.0 0.00 0.00 0.00 84 1014.3
20260904061658 79 293 2.0 3.0 0.00 0.00 0.00 84 1014.3
20260904061558 79 312 3.0 3.0 0.00 0.00 0.00 84 1014.3
20260904061458 79 316 2.0 3.0 0.00 0.00 0.00 84 1014.4
20260904061358 79 314 2.0 3.0 0.00 0.00 0.00 84 1014.4
20260904061257 79 307 2.0 3.0 0.00 0.00 0.00 84 1014.4
20260904061157 79 331 2.0 3.0 0.00 0.00 0.00 84 1014.4
20260904061057 79 340 0.0 3.0 0.00 0.00 0.00 84 1014.5
20260904061000 79 331 1.0 3.0 0.00 0.00 0.00 84 1014.5
20260904060857 79 330 2.0 3.0 0.00 0.00 0.00 84 1014.6
20260904060758 79 338 2.0 3.0 0.00 0.00 0.00 84 1014.6
20260904060658 79 333 2.0 3.0 0.00 0.00 0.00 84 1014.5
20260904060558 79 308 2.0 3.0 0.00 0.00 0.00 84 1014.6
20260904060458 79 317 2.0 3.0 0.00 0.00 0.00 84 1014.6
20260904060357 79 308 2.0 3.0 0.00 0.00 0.00 84 1014.5
20260904060257 79 314 2.0 3.0 0.00 0.00 0.00 84 1014.6
20260904060157 79 307 2.0 3.0 0.00 0.00 0.00 84 1014.6
20260904060057 79 321 2.0 3.0 0.00 0.00 0.00 84 1014.6
20260904060000 79 333 2.0 3.0 0.00 0.00 0.00 84 1014.6
20260904055857 79 335 2.0 3.0 0.00 0.00 0.00 84 1014.6
20260904055758 79 328 2.0 3.0 0.00 0.00 0.00 84 1014.6
20260904055556 79 312 1.0 3.0 0.00 0.00 0.00 84 1014.6
20260904055458 79 312 2.0 3.0 0.00 0.00 0.00 84 1014.6
20260904055357 79 319 2.0 3.0 0.00 0.00 0.00 84 1014.6
20260904055158 79 319 0.0 3.0 0.00 0.00 0.00 84 1014.7
20260904055000 79 340 1.0 3.0 0.00 0.00 0.00 84 1014.6
20260904054858 79 303 1.0 3.0 0.00 0.00 0.00 84 1014.7
20260904054757 79 329 2.0 3.0 0.00 0.00 0.00 84 1014.7
20260904054657 79 342 2.0 3.0 0.00 0.00 0.00 84 1014.7
20260904054556 79 324 0.0 3.0 0.00 0.00 0.00 84 1014.7
20260904054458 79 338 1.0 2.0 0.00 0.00 0.00 84 1014.7
20260904054357 79 302 0.0 2.0 0.00 0.00 0.00 84 1014.8
20260904054258 79 310 2.0 2.0 0.00 0.00 0.00 84 1014.9
20260904054157 79 326 2.0 2.0 0.00 0.00 0.00 84 1014.9
20260904053959 79 321 0.0 2.0 0.00 0.00 0.00 84 1015.0
20260904053856 79 309 0.0 2.0 0.00 0.00 0.00 84 1014.9
20260904053757 79 309 0.0 2.0 0.00 0.00 0.00 84 1014.9
20260904053658 79 307 2.0 2.0 0.00 0.00 0.00 84 1014.9
20260904053557 79 324 1.0 2.0 0.00 0.00 0.00 84 1014.8
20260904053459 79 309 0.0 2.0 0.00 0.00 0.00 84 1014.8
20260904053357 79 312 0.0 2.0 0.00 0.00 0.00 84 1014.8
20260904053157 79 295 1.0 2.0 0.00 0.00 0.00 84 1014.8
20260904053057 79 1 2.0 2.0 0.00 0.00 0.00 84 1014.8
20260904052959 79 352 2.0 2.0 0.00 0.00 0.00 84 1014.8
20260904052858 79 328 1.0 3.0 0.00 0.00 0.00 84 1014.9
20260904052757 79 330 1.0 3.0 0.00 0.00 0.00 83 1014.9
20260904052657 79 328 0.0 3.0 0.00 0.00 0.00 84 1014.8
20260904052557 79 290 2.0 3.0 0.00 0.00 0.00 83 1014.8
20260904052458 79 307 1.0 3.0 0.00 0.00 0.00 83 1014.9
20260904052357 79 338 2.0 3.0 0.00 0.00 0.00 83 1014.9
20260904052258 79 314 1.0 3.0 0.00 0.00 0.00 83 1014.9
20260904052157 79 322 2.0 3.0 0.00 0.00 0.00 83 1015.0
20260904052057 79 321 2.0 3.0 0.00 0.00 0.00 84 1015.0
20260904051959 79 316 0.0 2.0 0.00 0.00 0.00 84 1014.9
20260904051857 79 345 2.0 2.0 0.00 0.00 0.00 83 1015.1
20260904051757 79 319 1.0 2.0 0.00 0.00 0.00 83 1015.0
20260904051557 79 309 0.0 2.0 0.00 0.00 0.00 83 1015.0
20260904051458 79 312 0.0 2.0 0.00 0.00 0.00 83 1014.9
20260904051359 79 338 0.0 2.0 0.00 0.00 0.00 83 1014.9
20260904051257 80 331 2.0 2.0 0.00 0.00 0.00 83 1015.2
20260904051158 79 317 2.0 2.0 0.00 0.00 0.00 83 1015.0
20260904051056 80 317 2.0 2.0 0.00 0.00 0.00 83 1015.1
20260904051000 80 296 0.0 2.0 0.00 0.00 0.00 83 1015.2
20260904050858 80 296 0.0 2.0 0.00 0.00 0.00 83 1015.1
20260904050757 80 311 0.0 3.0 0.00 0.00 0.00 83 1015.1
20260904050657 80 294 1.0 3.0 0.00 0.00 0.00 83 1015.1
20260904050557 80 296 0.0 3.0 0.00 0.00 0.00 83 1015.1
20260904050458 80 323 2.0 3.0 0.00 0.00 0.00 83 1015.0
20260904050357 80 304 0.0 3.0 0.00 0.00 0.00 82 1015.0
20260904050257 80 274 0.0 3.0 0.00 0.00 0.00 82 1015.0
20260904050156 80 264 0.0 3.0 0.00 0.00 0.00 82 1015.0
20260904050003 80 333 0.0 3.0 0.00 0.00 0.00 82 1015.0
20260904045901 80 321 2.0 2.0 0.00 0.00 0.00 82 1015.0
20260904045800 80 312 1.0 2.0 0.00 0.00 0.00 82 1014.9
20260904045700 80 323 0.0 2.0 0.00 0.00 0.00 82 1015.0
20260904045600 80 285 0.0 2.0 0.00 0.00 0.00 82 1014.9
20260904045503 80 326 2.0 3.0 0.00 0.00 0.00 81 1015.0
20260904045300 80 270 0.0 3.0 0.00 0.00 0.00 81 1014.9
20260904045100 80 270 0.0 3.0 0.00 0.00 0.00 81 1014.9
20260904045003 80 280 0.0 3.0 0.00 0.00 0.00 81 1015.0
20260904044859 81 280 0.0 3.0 0.00 0.00 0.00 81 1014.8
20260904044659 81 307 2.0 3.0 0.00 0.00 0.00 80 1014.9
20260904044600 81 307 2.0 3.0 0.00 0.00 0.00 80 1014.9
20260904044503 81 301 2.0 3.0 0.00 0.00 0.00 80 1014.9
20260904044100 81 303 2.0 3.0 0.00 0.00 0.00 79 1014.9
20260904044003 81 299 2.0 3.0 0.00 0.00 0.00 79 1015.0
20260904043900 81 300 2.0 3.0 0.00 0.00 0.00 79 1015.0
20260904043701 81 276 2.0 3.0 0.00 0.00 0.00 79 1015.0
20260904043559 81 309 0.0 3.0 0.00 0.00 0.00 79 1015.0
20260904043502 81 275 0.0 3.0 0.00 0.00 0.00 79 1015.0
20260904043401 81 321 0.0 3.0 0.00 0.00 0.00 79 1015.0
20260904043301 81 322 1.0 3.0 0.00 0.00 0.00 79 1015.0
20260904043100 81 302 2.0 2.0 0.00 0.00 0.00 79 1015.1
20260904042900 81 312 0.0 2.0 0.00 0.00 0.00 78 1015.1
20260904042800 81 312 0.0 2.0 0.00 0.00 0.00 78 1015.1
20260904042659 81 314 1.0 2.0 0.00 0.00 0.00 78 1015.1
20260904042601 81 316 0.0 3.0 0.00 0.00 0.00 78 1015.1
20260904042503 81 314 1.0 3.0 0.00 0.00 0.00 79 1015.1
20260904042401 81 308 2.0 3.0 0.00 0.00 0.00 79 1015.1
20260904042300 81 293 2.0 3.0 0.00 0.00 0.00 78 1015.2
20260904042201 81 300 2.0 3.0 0.00 0.00 0.00 79 1015.2
20260904042101 81 295 2.0 3.0 0.00 0.00 0.00 79 1015.2
20260904042003 81 293 0.0 3.0 0.00 0.00 0.00 78 1015.1
20260904041900 81 303 0.0 3.0 0.00 0.00 0.00 78 1015.1
20260904041800 81 293 2.0 3.0 0.00 0.00 0.00 78 1015.0
20260904041700 81 270 0.0 3.0 0.00 0.00 0.00 78 1015.1
20260904041601 81 286 1.0 3.0 0.00 0.00 0.00 78 1015.1
20260904041504 81 330 2.0 3.0 0.00 0.00 0.00 78 1015.1
20260904041400 81 307 0.0 3.0 0.00 0.00 0.00 78 1015.1
20260904041259 81 277 0.0 3.0 0.00 0.00 0.00 78 1015.1
20260904041003 81 314 0.0 3.0 0.00 0.00 0.00 78 1015.1
20260904040900 81 321 1.0 3.0 0.00 0.00 0.00 79 1015.2
20260904040800 81 307 2.0 3.0 0.00 0.00 0.00 78 1015.1
20260904040700 81 309 2.0 3.0 0.00 0.00 0.00 78 1015.2
20260904040600 81 317 2.0 3.0 0.00 0.00 0.00 78 1015.2
20260904040503 81 300 2.0 3.0 0.00 0.00 0.00 79 1015.1
20260904040401 81 316 2.0 655.0 3.86 0.40 0.00 78
20260904040301 81 300 2.0 3.0 0.00 0.00 0.00 78 1015.2
20260904040200 81 310 2.0 2.0 0.00 0.00 0.00 78 1015.1
20260904040100 81 317 2.0 2.0 0.00 0.00 0.00 78 1015.2
20260904040003 81 321 2.0 3.0 0.00 0.00 0.00 78 1015.2
20260904035759 81 326 1.0 3.0 0.00 0.00 0.00 78 1015.2
20260904035700 81 300 1.0 3.0 0.00 0.00 0.00 78 1015.2
20260904035502 81 300 1.0 3.0 0.00 0.00 0.00 78 1015.1
20260904035359 81 276 0.0 3.0 0.00 0.00 0.00 78 1015.0
20260904035259 81 285 1.0 3.0 0.00 0.00 0.00 78 1015.0
20260904035159 81 301 0.0 3.0 0.00 0.00 0.00 78 1015.0
20260904035059 81 295 1.0 3.0 0.00 0.00 0.00 78 1015.1
20260904035002 81 289 1.0 3.0 0.00 0.00 0.00 78 1015.0
20260904034859 81 300 2.0 3.0 0.00 0.00 0.00 78 1015.0
20260904034758 81 293 2.0 3.0 0.00 0.00 0.00 78 1015.0
20260904034658 81 277 0.0 3.0 0.00 0.00 0.00 78 1015.0
20260904034559 81 283 1.0 3.0 0.00 0.00 0.00 78 1015.0
20260904034500 81 300 3.0 3.0 0.00 0.00 0.00 77 1015.0
20260904034359 81 293 2.0 3.0 0.00 0.00 0.00 77 1015.0
20260904034300 81 285 2.0 3.0 0.00 0.00 0.00 77 1015.0
20260904034059 81 303 1.0 3.0 0.00 0.00 0.00 77 1015.1
20260904034003 82 295 0.0 3.0 0.00 0.00 0.00 77 1015.1
20260904033859 82 268 1.0 3.0 0.00 0.00 0.00 77 1015.1
20260904033759 82 296 2.0 3.0 0.00 0.00 0.00 77 1015.1
20260904033701 82 293 2.0 3.0 0.00 0.00 0.00 77 1015.1
20260904033559 82 308 2.0 3.0 0.00 0.00 0.00 77 1015.0
20260904033459 82 307 1.0 3.0 0.00 0.00 0.00 77 1015.1
20260904033359 82 315 2.0 3.0 0.00 0.00 0.00 77 1015.2
20260904033259 82 296 2.0 3.0 0.00 0.00 0.00 77 1015.2
20260904033159 82 302 2.0 3.0 0.00 0.00 0.00 77 1015.1
20260904033058 82 297 2.0 3.0 0.00 0.00 0.00 77 1015.2
20260904033002 82 354 1.0 3.0 0.00 0.00 0.00 77 1015.2
20260904032859 82 305 2.0 3.0 0.00 0.00 0.00 77 1015.1
20260904032759 82 315 2.0 3.0 0.00 0.00 0.00 77 1015.2
20260904032659 82 284 0.0 3.0 0.00 0.00 0.00 77 1015.0
20260904032558 82 303 0.0 3.0 0.00 0.00 0.00 77 1015.1
20260904032501 82 296 0.0 3.0 0.00 0.00 0.00 76 1015.2
20260904032359 82 284 0.0 3.0 0.00 0.00 0.00 76 1015.2
20260904032300 82 273 0.0 3.0 0.00 0.00 0.00 76 1015.1
20260904032200 82 286 2.0 3.0 0.00 0.00 0.00 77 1015.1
20260904032100 82 295 2.0 3.0 0.00 0.00 0.00 76 1015.1
20260904032003 82 288 2.0 3.0 0.00 0.00 0.00 76 1015.0
20260904031859 82 307 1.0 2.0 0.00 0.00 0.00 76 1015.1
20260904031759 82 305 1.0 2.0 0.00 0.00 0.00 76 1015.1
20260904031659 82 328 2.0 3.0 0.00 0.00 0.00 76 1015.1
20260904031559 82 284 0.0 3.0 0.00 0.00 0.00 76 1015.1
20260904031500 82 294 0.0 3.0 0.00 0.00 0.00 76 1015.1
20260904031359 82 294 0.0 3.0 0.00 0.00 0.00 76 1015.1
20260904031259 82 281 0.0 3.0 0.00 0.00 0.00 76 1015.1
20260904031200 82 307 0.0 3.0 0.00 0.00 0.00 76 1015.1
20260904031059 82 317 0.0 3.0 0.00 0.00 0.00 76 1015.0
20260904030859 82 308 2.0 3.0 0.00 0.00 0.00 76 1015.0
20260904030759 82 274 1.0 3.0 0.00 0.00 0.00 76 1015.0
20260904030659 82 297 1.0 3.0 0.00 0.00 0.00 75 1015.1
20260904030500 82 282 2.0 3.0 0.00 0.00 0.00 75 1015.1
20260904030358 82 296 2.0 3.0 0.00 0.00 0.00 75 1015.1
20260904030300 82 285 2.0 3.0 0.00 0.00 0.00 75 1015.1
20260904030159 82 322 0.0 3.0 0.00 0.00 0.00 75 1015.1
20260904030059 82 307 0.0 3.0 0.00 0.00 0.00 75 1015.2
20260904030005 82 289 1.0 3.0 0.00 0.00 0.00 75 1015.2
20260904025859 83 331 1.0 3.0 0.00 0.00 0.00 75 1015.0
20260904025700 83 321 2.0 3.0 0.00 0.00 0.00 75 1015.1
20260904025559 83 302 0.0 3.0 0.00 0.00 0.00 75 1015.0
20260904025503 83 302 0.0 3.0 0.00 0.00 0.00 75 1015.1
20260904025400 83 305 0.0 3.0 0.00 0.00 0.00 75 1015.0
20260904025259 83 293 2.0 3.0 0.00 0.00 0.00 74 1015.1
20260904025159 83 307 0.0 3.0 0.00 0.00 0.00 75 1015.0
20260904025058 83 307 0.0 3.0 0.00 0.00 0.00 74 1015.1
20260904025004 83 300 0.0 3.0 0.00 0.00 0.00 74 1015.1
20260904024900 83 273 0.0 3.0 0.00 0.00 0.00 74 1015.2
20260904024759 83 294 0.0 3.0 0.00 0.00 0.00 74 1015.1
20260904024700 83 323 0.0 3.0 0.00 0.00 0.00 74 1015.2
20260904024558 83 321 0.0 3.0 0.00 0.00 0.00 74 1015.1
20260904024501 83 341 1.0 3.0 0.00 0.00 0.00 74 1015.2
20260904024358 83 253 0.0 3.0 0.00 0.00 0.00 74 1015.2
20260904024258 83 176 0.0 3.0 0.00 0.00 0.00 74 1015.2
20260904024059 83 243 0.0 3.0 0.00 0.00 0.00 74 1015.1
20260904024002 83 243 0.0 3.0 0.00 0.00 0.00 74 1015.1
20260904023900 83 295 0.0 3.0 0.00 0.00 0.00 73 1015.0
20260904023759 83 295 0.0 3.0 0.00 0.00 0.00 73 1015.1
20260904023659 83 295 0.0 3.0 0.00 0.00 0.00 73 1015.0
20260904023500 83 23 0.0 4.0 0.00 0.00 0.00 73 1015.0
20260904023359 83 347 0.0 4.0 0.00 0.00 0.00 73 1015.0
20260904023259 83 338 2.0 4.0 0.00 0.00 0.00 73 1015.0
20260904023159 83 286 0.0 4.0 0.00 0.00 0.00 73 1015.0
20260904023059 83 308 1.0 4.0 0.00 0.00 0.00 73 1014.9
20260904023003 83 267 0.0 4.0 0.00 0.00 0.00 73 1014.9
20260904022859 83 293 2.0 4.0 0.00 0.00 0.00 72 1014.9
20260904022759 83 317 3.0 4.0 0.00 0.00 0.00 72 1014.8
20260904022700 83 302 2.0 4.0 0.00 0.00 0.00 72 1014.9
20260904022559 83 295 0.0 4.0 0.00 0.00 0.00 72 1014.8
20260904022500 83 285 0.0 4.0 0.00 0.00 0.00 72 1014.7
20260904022359 83 300 0.0 4.0 0.00 0.00 0.00 72 1014.8
20260904022259 83 280 1.0 4.0 0.00 0.00 0.00 72 1014.9
20260904022159 83 286 3.0 4.0 0.00 0.00 0.00 72 1014.9
20260904022100 84 309 0.0 4.0 0.00 0.00 0.00 71 1014.9
20260904022002 84 309 0.0 4.0 0.00 0.00 0.00 71 1014.9
20260904021758 84 301 4.0 4.0 0.00 0.00 0.00 71 1015.1
20260904021659 84 193 0.0 2.0 0.00 0.00 0.00 71 1015.0
20260904021558 84 277 0.0 2.0 0.00 0.00 0.00 71 1015.0
20260904021359 84 163 0.0 3.0 0.00 0.00 0.00 70 1015.0
20260904021300 84 266 0.0 3.0 0.00 0.00 0.00 70 1015.0
20260904021159 84 286 1.0 3.0 0.00 0.00 0.00 70 1014.8
20260904021059 84 296 0.0 3.0 0.00 0.00 0.00 70 1014.9
20260904021004 84 146 0.0 3.0 0.00 0.00 0.00 70 1014.9
20260904020859 84 288 0.0 3.0 0.00 0.00 0.00 69 1014.9
20260904020800 84 301 0.0 3.0 0.00 0.00 0.00 69 1014.8
20260904020659 84 276 2.0 3.0 0.00 0.00 0.00 69 1014.8
20260904020600 84 252 2.0 3.0 0.00 0.00 0.00 69 1014.7
20260904020502 85 1 0.0 3.0 0.00 0.00 0.00 69 1014.7
20260904020359 85 239 0.0 3.0 0.00 0.00 0.00 68 1014.7
20260904020159 85 242 2.0 3.0 0.00 0.00 0.00 68 1014.7
20260904020100 85 293 3.0 3.0 0.00 0.00 0.00 68 1014.7
20260904020006 85 252 3.0 3.0 0.00 0.00 0.00 67 1014.7
20260904015859 85 314 0.0 3.0 0.00 0.00 0.00 67 1014.6
20260904015759 85 254 0.0 3.0 0.00 0.00 0.00 67 1014.5
20260904015559 85 293 0.0 1.0 0.00 0.00 0.00 67 1014.4
20260904015500 85 293 0.0 2.0 0.00 0.00 0.00 67 1014.4
20260904015358 85 292 0.0 2.0 0.00 0.00 0.00 66 1014.4
20260904015259 85 345 0.0 2.0 0.00 0.00 0.00 66 1014.4
20260904015159 85 345 0.0 2.0 0.00 0.00 0.00 66 1014.4
20260904015059 85 345 0.0 2.0 0.00 0.00 0.00 66 1014.4
20260904015003 85 282 0.0 2.0 0.00 0.00 0.00 66 1014.4
20260904014859 86 282 0.0 2.0 0.00 0.00 0.00 66 1014.3
20260904014800 86 282 0.0 2.0 0.00 0.00 0.00 65 1014.4
20260904014659 86 282 0.0 2.0 0.00 0.00 0.00 65 1014.4
20260904014559 86 307 0.0 2.0 0.00 0.00 0.00 65 1014.4
20260904014500 86 303 0.0 2.0 0.00 0.00 0.00 65 1014.4
20260904014359 86 303 0.0 2.0 0.00 0.00 0.00 65 1014.4
20260904014159 86 300 0.0 2.0 0.00 0.00 0.00 65 1014.4
20260904014100 86 309 0.0 2.0 0.00 0.00 0.00 64 1014.4
20260904014003 86 128 0.0 1.0 0.00 0.00 0.00 64 1014.4
20260904013900 86 303 0.0 1.0 0.00 0.00 0.00 64 1014.4
20260904013758 86 303 0.0 1.0 0.00 0.00 0.00 64 1014.4
20260904013659 86 303 0.0 1.0 0.00 0.00 0.00 63 1014.3
20260904013559 86 297 0.0 3.0 0.00 0.00 0.00 63 1014.3
20260904013502 86 288 0.0 3.0 0.00 0.00 0.00 63 1014.3
20260904013359 86 360 0.0 3.0 0.00 0.00 0.00 63 1014.3
20260904013300 86 360 0.0 3.0 0.00 0.00 0.00 63 1014.3
20260904013159 87 316 0.0 3.0 0.00 0.00 0.00 63 1014.2
20260904013059 87 323 0.0 3.0 0.00 0.00 0.00 63 1014.3
20260904013003 87 335 0.0 3.0 0.00 0.00 0.00 63 1014.2
20260904012859 87 335 0.0 3.0 0.00 0.00 0.00 63 1014.2
20260904012759 87 335 0.0 3.0 0.00 0.00 0.00 63 1014.2
20260904012659 87 34 0.0 3.0 0.00 0.00 0.00 63 1014.2
20260904012559 87 56 0.0 2.0 0.00 0.00 0.00 63 1014.1
20260904012359 87 296 0.0 2.0 0.00 0.00 0.00 63 1014.2
20260904012259 87 324 0.0 2.0 0.00 0.00 0.00 63 1014.2
20260904012158 87 324 0.0 2.0 0.00 0.00 0.00 63 1014.1
20260904012059 87 324 0.0 2.0 0.00 0.00 0.00 63 1014.1
20260904012003 87 312 0.0 2.0 0.00 0.00 0.00 62 1014.1
20260904011859 87 343 1.0 2.0 0.00 0.00 0.00 62 1014.2
20260904011758 87 323 2.0 2.0 0.00 0.00 0.00 62 1014.1
20260904011658 87 303 0.0 2.0 0.00 0.00 0.00 62 1014.2
20260904011559 87 336 0.0 2.0 0.00 0.00 0.00 62 1014.1
20260904011500 87 336 0.0 2.0 0.00 0.00 0.00 62 1014.2
20260904011359 87 352 0.0 3.0 0.00 0.00 0.00 62 1014.1
20260904011259 87 315 0.0 3.0 0.00 0.00 0.00 62 1014.1
20260904011059 87 23 0.0 3.0 0.00 0.00 0.00 62 1014.0
20260904010858 87 319 2.0 3.0 0.00 0.00 0.00 62 1013.9
20260904010759 87 336 0.0 3.0 0.00 0.00 0.00 62 1014.0
20260904010658 87 336 0.0 3.0 0.00 0.00 0.00 62 1013.9
20260904010559 87 308 2.0 3.0 0.00 0.00 0.00 62 1013.9
20260904010358 87 336 0.0 3.0 0.00 0.00 0.00 62 1013.9
20260904010300 87 24 0.0 2.0 0.00 0.00 0.00 62 1013.8
20260904010200 87 323 0.0 2.0 0.00 0.00 0.00 62 1013.8
20260904005859 87 90 0.0 2.0 0.00 0.00 0.00 62 1013.8
20260904005758 87 294 0.0 2.0 0.00 0.00 0.00 62 1013.8
20260904005659 87 323 0.0 2.0 0.00 0.00 0.00 62 1013.8
20260904005502 87 359 0.0 2.0 0.00 0.00 0.00 62 1013.8
20260904005358 87 349 0.0 2.0 0.00 0.00 0.00 62 1013.9
20260904005258 87 348 0.0 2.0 0.00 0.00 0.00 62 1013.9
20260904005159 87 350 1.0 2.0 0.00 0.00 0.00 61 1013.8
20260904005059 87 352 1.0 2.0 0.00 0.00 0.00 61 1013.8
20260904004859 87 341 1.0 2.0 0.00 0.00 0.00 61 1013.8
20260904004758 87 301 0.0 2.0 0.00 0.00 0.00 62 1013.8
20260904004659 87 340 1.0 2.0 0.00 0.00 0.00 61 1013.8
20260904004559 87 340 0.0 4.0 0.00 0.00 0.00 61 1013.8
20260904004500 88 300 2.0 4.0 0.00 0.00 0.00 61 1013.8
20260904004359 88 333 0.0 4.0 0.00 0.00 0.00 61 1013.8
20260904004259 88 3 2.0 4.0 0.00 0.00 0.00 61 1013.8
20260904004158 88 352 0.0 4.0 0.00 0.00 0.00 61 1013.7
20260904004059 88 328 0.0 4.0 0.00 0.00 0.00 61 1013.7
20260904004002 88 326 2.0 4.0 0.00 0.00 0.00 61 1013.7
20260904003759 88 320 0.0 4.0 0.00 0.00 0.00 61 1013.8
20260904003659 88 356 2.0 3.0 0.00 0.00 0.00 61 1013.8
20260904003501 88 6 2.0 3.0 0.00 0.00 0.00 60 1013.8
20260904003300 88 360 0.0 3.0 0.00 0.00 0.00 60 1013.7
20260904003159 88 301 1.0 3.0 0.00 0.00 0.00 60 1013.7
20260904003059 88 355 0.0 3.0 0.00 0.00 0.00 60 1013.7
20260904003003 88 357 0.0 3.0 0.00 0.00 0.00 60 1013.7
20260904002800 88 341 0.0 3.0 0.00 0.00 0.00 60 1013.8
20260904002659 88 55 0.0 3.0 0.00 0.00 0.00 60 1013.8
20260904002600 88 315 1.0 3.0 0.00 0.00 0.00 60 1013.8
20260904002359 88 1 0.0 3.0 0.00 0.00 0.00 60 1013.8
20260904002300 88 1 0.0 3.0 0.00 0.00 0.00 60 1013.8
20260904002158 88 333 0.0 3.0 0.00 0.00 0.00 60 1013.8
20260904002059 88 343 1.0 3.0 0.00 0.00 0.00 60 1013.8
20260904002003 88 338 2.0 3.0 0.00 0.00 0.00 59 1013.7
20260904001858 88 357 1.0 4.0 0.00 0.00 0.00 59 1013.8
20260904001759 88 319 0.0 4.0 0.00 0.00 0.00 59 1013.7
20260904001700 89 23 2.0 4.0 0.00 0.00 0.00 59 1013.7
20260904001558 89 67 1.0 4.0 0.00 0.00 0.00 59 1013.7
20260904001501 89 278 1.0 4.0 0.00 0.00 0.00 59 1013.7
20260904001359 89 338 2.0 4.0 0.00 0.00 0.00 59 1013.7
20260904001259 89 354 0.0 4.0 0.00 0.00 0.00 59 1013.6
20260904001200 89 343 0.0 4.0 0.00 0.00 0.00 59 1013.6
20260904001059 89 329 1.0 4.0 0.00 0.00 0.00 59 1013.7
20260904001003 89 12 3.0 3.0 0.00 0.00 0.00 58 1013.7
20260904000759 89 6 3.0 4.0 0.00 0.00 0.00 59 1013.7
20260904000659 89 309 1.0 4.0 0.00 0.00 0.00 58 1013.7
20260904000559 89 20 0.0 4.0 0.00 0.00 0.00 58 1013.7
20260904000359 89 44 2.0 4.0 0.00 0.00 0.00 58 1013.6
20260904000259 89 11 2.0 4.0 0.00 0.00 0.00 58 1013.6
20260904000159 89 360 1.0 4.0 0.00 0.00 0.00 58 1013.6
20260904000059 89 333 0.0 5.0 0.00 0.00 0.00 57 1013.7
20260904000004 89 321 2.0 5.0 0.00 0.00 0.00 58 1013.7
20260903235900 89 298 2.0 5.0 0.00 0.00 0.00 57 1013.5
20260903235759 89 11 2.0 5.0 0.00 0.00 0.00 57 1013.5
20260903235659 89 347 2.0 5.0 0.00 0.00 0.00 57 1013.5
20260903235500 89 23 4.0 5.0 0.00 0.00 0.00 57 1013.4
20260903235359 89 10 3.0 5.0 0.00 0.00 0.00 57 1013.4
20260903235258 90 324 2.0 5.0 0.00 0.00 0.00 57 1013.5
20260903235159 90 19 2.0 5.0 0.00 0.00 0.00 57 1013.5
20260903235004 90 338 1.0 5.0 0.00 0.00 0.00 57 1013.5
20260903234859 90 8 2.0 5.0 0.00 0.00 0.00 56 1013.5
20260903234759 90 312 1.0 5.0 0.00 0.00 0.00 57 1013.4
20260903234659 90 121 1.0 5.0 0.00 0.00 0.00 57 1013.4
20260903234558 90 45 3.0 4.0 0.00 0.00 0.00 57 1013.3
20260903234500 90 340 3.0 4.0 0.00 0.00 0.00 57 1013.3
20260903234359 90 3 4.0 4.0 0.00 0.00 0.00 57 1013.3
20260903234259 90 44 1.0 4.0 0.00 0.00 0.00 57 1013.3
20260903234159 90 27 2.0 4.0 0.00 0.00 0.00 57 1013.3
20260903234059 90 354 2.0 5.0 0.00 0.00 0.00 57 1013.3
20260903234004 90 349 2.0 5.0 0.00 0.00 0.00 56 1013.3
20260903233859 90 349 1.0 5.0 0.00 0.00 0.00 57 1013.4
20260903233759 90 347 2.0 5.0 0.00 0.00 0.00 56 1013.3
20260903233700 90 359 4.0 5.0 0.00 0.00 0.00 56 1013.3
20260903233558 90 25 1.0 5.0 0.00 0.00 0.00 56 1013.3
20260903233503 90 10 3.0 5.0 0.00 0.00 0.00 56 1013.3
20260903233359 90 53 0.0 5.0 0.00 0.00 0.00 56 1013.4
20260903233300 90 4 0.0 5.0 0.00 0.00 0.00 56 1013.3
20260903233159 90 18 3.0 5.0 0.00 0.00 0.00 56 1013.3
20260903233101 91 341 3.0 5.0 0.00 0.00 0.00 55 1013.3
20260903233003 91 24 4.0 5.0 0.00 0.00 0.00 55 1013.3
20260903232859 91 3 4.0 5.0 0.00 0.00 0.00 55 1013.3
20260903232800 91 148 2.0 6.0 0.00 0.00 0.00 55 1013.4
20260903232659 91 352 3.0 6.0 0.00 0.00 0.00 55 1013.4
20260903232559 91 17 2.0 6.0 0.00 0.00 0.00 55 1013.5
20260903232500 91 91 3.0 6.0 0.00 0.00 0.00 55 1013.5
20260903232359 91 15 2.0 6.0 0.00 0.00 0.00 55 1013.5
20260903232159 91 15 4.0 6.0 0.00 0.00 0.00 55 1013.6
20260903232059 91 124 3.0 6.0 0.00 0.00 0.00 55 1013.6
20260903232002 91 22 2.0 6.0 0.00 0.00 0.00 55 1013.7
20260903231759 91 273 1.0 5.0 0.00 0.00 0.00 55 1013.7
20260903231659 91 15 2.0 5.0 0.00 0.00 0.00 55 1013.6
20260903231559 91 345 2.0 5.0 0.00 0.00 0.00 55 1013.7
20260903231500 91 6 2.0 5.0 0.00 0.00 0.00 55 1013.6
20260903231359 91 10 2.0 5.0 0.00 0.00 0.00 55 1013.6
20260903231258 91 334 2.0 5.0 0.00 0.00 0.00 55 1013.6
20260903231200 91 352 0.0 5.0 0.00 0.00 0.00 55 1013.6
20260903231058 91 34 0.0 5.0 0.00 0.00 0.00 54 1013.7
20260903231004 91 338 3.0 6.0 0.00 0.00 0.00 54 1013.7
20260903230900 91 11 4.0 6.0 0.00 0.00 0.00 54 1013.7
20260903230800 91 67 2.0 6.0 0.00 0.00 0.00 54 1013.7
20260903230659 91 45 2.0 6.0 0.00 0.00 0.00 54 1013.7
20260903230559 91 15 2.0 6.0 0.00 0.00 0.00 54 1013.7
20260903230500 91 348 3.0 6.0 0.00 0.00 0.00 54 1013.5
20260903230359 91 11 4.0 6.0 0.00 0.00 0.00 54 1013.5
20260903230259 91 340 0.0 6.0 0.00 0.00 0.00 54 1013.5
20260903230159 91 355 2.0 6.0 0.00 0.00 0.00 54 1013.5
20260903230058 91 341 5.0 6.0 0.00 0.00 0.00 54 1013.6
20260903230003 91 338 3.0 6.0 0.00 0.00 0.00 54 1013.7
20260903225858 91 345 2.0 6.0 0.00 0.00 0.00 54 1013.6
20260903225658 91 3 3.0 6.0 0.00 0.00 0.00 54 1013.6
20260903225558 91 24 4.0 6.0 0.00 0.00 0.00 54 1013.6
20260903225500 91 360 6.0 6.0 0.00 0.00 0.00 54 1013.6
20260903225357 91 32 1.0 6.0 0.00 0.00 0.00 54 1013.6
20260903225258 91 290 0.0 6.0 0.00 0.00 0.00 54 1013.6
20260903225157 91 19 2.0 6.0 0.00 0.00 0.00 54 1013.5
20260903225058 91 13 2.0 6.0 0.00 0.00 0.00 53 1013.5
20260903225001 91 45 2.0 6.0 0.00 0.00 0.00 53 1013.5
20260903224859 91 1 3.0 6.0 0.00 0.00 0.00 53 1013.5
20260903224758 91 12 4.0 6.0 0.00 0.00 0.00 53 1013.5
20260903224658 91 108 0.0 6.0 0.00 0.00 0.00 53 1013.5
20260903224558 91 360 3.0 6.0 0.00 0.00 0.00 53 1013.6
20260903224500 91 350 3.0 6.0 0.00 0.00 0.00 53 1013.5
20260903224357 91 341 3.0 5.0 0.00 0.00 0.00 54 1013.4
20260903224259 91 341 3.0 6.0 0.00 0.00 0.00 54 1013.4
20260903224158 91 360 1.0 6.0 0.00 0.00 0.00 54 1013.4
20260903224058 91 13 1.0 6.0 0.00 0.00 0.00 53 1013.4
20260903224000 91 32 3.0 6.0 0.00 0.00 0.00 53 1013.4
20260903223858 92 75 0.0 6.0 0.00 0.00 0.00 53 1013.4
20260903223658 92 8 3.0 6.0 0.00 0.00 0.00 53 1013.4
20260903223558 92 352 3.0 6.0 0.00 0.00 0.00 53 1013.3
20260903223459 92 81 0.0 6.0 0.00 0.00 0.00 53 1013.4
20260903223358 92 315 2.0 6.0 0.00 0.00 0.00 53 1013.4
20260903223257 92 360 3.0 6.0 0.00 0.00 0.00 53 1013.4
20260903223158 92 114 0.0 6.0 0.00 0.00 0.00 53 1013.4
20260903223059 92 74 4.0 6.0 0.00 0.00 0.00 52 1013.4
20260903222858 92 47 2.0 5.0 0.00 0.00 0.00 53 1013.5
20260903222759 92 130 4.0 5.0 0.00 0.00 0.00 53 1013.4
20260903222657 92 27 3.0 6.0 0.00 0.00 0.00 53 1013.4
20260903222500 92 347 0.0 6.0 0.00 0.00 0.00 53 1013.5
20260903222359 92 17 1.0 6.0 0.00 0.00 0.00 53 1013.4
20260903222157 92 338 3.0 8.0 0.00 0.00 0.00 53 1013.5
20260903222001 92 13 5.0 8.0 0.00 0.00 0.00 52 1013.5
20260903221858 92 1 4.0 8.0 0.00 0.00 0.00 52 1013.5
20260903221758 92 39 2.0 8.0 0.00 0.00 0.00 52 1013.5
20260903221658 92 210 5.0 8.0 0.00 0.00 0.00 52 1013.4
20260903221459 92 84 4.0 8.0 0.00 0.00 0.00 52 1013.5
20260903221358 92 30 3.0 6.0 0.00 0.00 0.00 53 1013.5
20260903221259 92 23 3.0 6.0 0.00 0.00 0.00 53 1013.4
20260903221158 92 38 3.0 6.0 0.00 0.00 0.00 53 1013.5
20260903221058 92 347 4.0 6.0 0.00 0.00 0.00 53 1013.5
20260903220959 92 4 2.0 6.0 0.00 0.00 0.00 53 1013.5
20260903220857 92 13 4.0 7.0 0.00 0.00 0.00 53 1013.5
20260903220759 92 1 4.0 7.0 0.00 0.00 0.00 52 1013.4
20260903220659 92 331 1.0 7.0 0.00 0.00 0.00 53 1013.5
20260903220558 92 1 5.0 7.0 0.00 0.00 0.00 52 1013.5
20260903220500 92 4 0.0 7.0 0.00 0.00 0.00 53 1013.5
20260903220358 92 11 5.0 7.0 0.00 0.00 0.00 52 1013.4
20260903220258 92 356 4.0 7.0 0.00 0.00 0.00 52 1013.4
20260903220058 92 4 2.0 7.0 0.00 0.00 0.00 52 1013.5
20260903215900 92 36 4.0 7.0 0.00 0.00 0.00 51 1013.5
20260903215759 93 13 2.0 7.0 0.00 0.00 0.00 51 1013.4
20260903215658 93 360 5.0 7.0 0.00 0.00 0.00 51 1013.5
20260903215559 93 46 5.0 6.0 0.00 0.00 0.00 51 1013.5
20260903215501 93 78 1.0 6.0 0.00 0.00 0.00 52 1013.5
20260903215359 93 334 5.0 7.0 0.00 0.00 0.00 52 1013.5
20260903215259 93 80 3.0 7.0 0.00 0.00 0.00 52 1013.5
20260903215159 93 65 2.0 7.0 0.00 0.00 0.00 51 1013.4
20260903215058 92 356 2.0 7.0 0.00 0.00 0.00 52 1013.5
20260903215002 92 18 4.0 8.0 0.00 0.00 0.00 52 1013.5
20260903214900 92 56 1.0 8.0 0.00 0.00 0.00 52 1013.5
20260903214800 92 19 4.0 8.0 0.00 0.00 0.00 51 1013.6
20260903214659 92 19 4.0 8.0 0.00 0.00 0.00 51 1013.6
20260903214559 92 335 2.0 8.0 0.00 0.00 0.00 52 1013.6
20260903214500 92 25 5.0 8.0 0.00 0.00 0.00 51 1013.6
20260903214400 92 65 3.0 9.0 0.00 0.00 0.00 52 1013.6
20260903214159 92 11 4.0 9.0 0.00 0.00 0.00 51 1013.6
20260903214004 92 353 5.0 9.0 0.00 0.00 0.00 51 1013.6
20260903213859 92 39 4.0 9.0 0.00 0.00 0.00 51 1013.6
20260903213801 92 20 7.0 9.0 0.00 0.00 0.00 51 1013.6
20260903213600 92 1 4.0 9.0 0.00 0.00 0.00 52 1013.7
20260903213502 92 13 5.0 7.0 0.00 0.00 0.00 52 1013.6
20260903213359 92 5 3.0 7.0 0.00 0.00 0.00 53 1013.6
20260903213259 92 15 6.0 7.0 0.00 0.00 0.00 52 1013.7
20260903213159 92 11 6.0 7.0 0.00 0.00 0.00 52 1013.6
20260903213059 92 22 3.0 7.0 0.00 0.00 0.00 52 1013.7
20260903213002 92 333 3.0 7.0 0.00 0.00 0.00 52 1013.7
20260903212859 92 341 3.0 7.0 0.00 0.00 0.00 52 1013.7
20260903212659 92 1 4.0 7.0 0.00 0.00 0.00 51 1013.8
20260903212500 92 15 3.0 7.0 0.00 0.00 0.00 51 1013.7
20260903212400 92 346 4.0 7.0 0.00 0.00 0.00 51 1013.8
20260903212259 93 48 2.0 7.0 0.00 0.00 0.00 51 1013.8
20260903212159 93 359 5.0 6.0 0.00 0.00 0.00 50 1013.8
20260903212059 93 24 4.0 6.0 0.00 0.00 0.00 50 1013.8
20260903212002 93 64 3.0 6.0 0.00 0.00 0.00 50 1013.8
20260903211859 93 347 4.0 8.0 0.00 0.00 0.00 50 1013.8
20260903211659 93 349 5.0 8.0 0.00 0.00 0.00 50 1013.8
20260903211559 93 326 4.0 8.0 0.00 0.00 0.00 50 1013.8
20260903211500 93 10 4.0 8.0 0.00 0.00 0.00 50 1013.7
20260903211359 93 353 5.0 8.0 0.00 0.00 0.00 49 1013.7
20260903211259 93 355 5.0 8.0 0.00 0.00 0.00 49 1013.7
20260903211159 93 39 1.0 8.0 0.00 0.00 0.00 48 1013.6
20260903211004 94 360 3.0 8.0 0.00 0.00 0.00 47 1013.7
20260903210858 94 52 3.0 8.0 0.00 0.00 0.00 47 1013.7
20260903210759 95 335 4.0 8.0 0.00 0.00 0.00 47 1013.8
20260903210659 95 355 7.0 8.0 0.00 0.00 0.00 47 1013.7
20260903210559 95 18 2.0 8.0 0.00 0.00 0.00 47 1013.7
20260903210501 95 353 4.0 8.0 0.00 0.00 0.00 47 1013.7
20260903210359 95 8 8.0 8.0 0.00 0.00 0.00 47 1013.8
20260903210159 95 13 5.0 10.0 0.00 0.00 0.00 47 1013.8
20260903210059 95 348 6.0 10.0 0.00 0.00 0.00 47 1013.8
20260903210005 95 349 5.0 10.0 0.00 0.00 0.00 47 1013.8
20260903205900 95 8 5.0 10.0 0.00 0.00 0.00 47 1013.8
20260903205759 95 4 5.0 10.0 0.00 0.00 0.00 47 1013.9
20260903205659 95 19 8.0 10.0 0.00 0.00 0.00 46 1013.9
20260903205559 95 344 6.0 10.0 0.00 0.00 0.00 47 1013.8
20260903205500 96 344 5.0 10.0 0.00 0.00 0.00 46 1013.9
20260903205259 95 11 4.0 8.0 0.00 0.00 0.00 47 1013.8
20260903205200 95 15 7.0 8.0 0.00 0.00 0.00 47 1013.8
20260903205002 95 27 2.0 9.0 0.00 0.00 0.00 48 1013.8
20260903204859 94 359 4.0 9.0 0.00 0.00 0.00 48 1013.8
20260903204759 94 91 2.0 9.0 0.00 0.00 0.00 48 1013.7
20260903204658 94 356 3.0 9.0 0.00 0.00 0.00 47 1013.8
20260903204559 95 22 5.0 9.0 0.00 0.00 0.00 47 1013.9
20260903204500 95 8 7.0 9.0 0.00 0.00 0.00 47 1013.9
20260903204259 95 5 6.0 9.0 0.00 0.00 0.00 47 1014.0
20260903204159 95 56 6.0 9.0 0.00 0.00 0.00 46 1014.0
20260903204059 95 48 2.0 9.0 0.00 0.00 0.00 47 1013.9
20260903204003 95 10 4.0 9.0 0.00 0.00 0.00 47 1014.0
20260903203559 95 347 4.0 6.0 0.00 0.00 0.00 47 1014.0
20260903203501 95 61 3.0 7.0 0.00 0.00 0.00 48 1014.0
20260903203359 94 13 4.0 7.0 0.00 0.00 0.00 47 1014.0
20260903203300 94 52 2.0 7.0 0.00 0.00 0.00 48 1014.1
20260903203159 94 360 5.0 7.0 0.00 0.00 0.00 48 1014.1
20260903203100 94 322 3.0 7.0 0.00 0.00 0.00 48 1014.1
20260903202858 93 342 3.0 8.0 0.00 0.00 0.00 49 1014.1
20260903202759 93 65 6.0 8.0 0.00 0.00 0.00 48 1014.1
20260903202700 93 123 3.0 8.0 0.00 0.00 0.00 48 1014.2
20260903202501 94 56 3.0 8.0 0.00 0.00 0.00 48 1014.1
20260903202358 94 81 5.0 8.0 0.00 0.00 0.00 48 1014.2
20260903202259 94 45 3.0 9.0 0.00 0.00 0.00 48 1014.2
20260903202159 94 330 5.0 9.0 0.00 0.00 0.00 48 1014.1
20260903202059 94 10 5.0 9.0 0.00 0.00 0.00 48 1014.1
20260903202003 94 53 2.0 9.0 0.00 0.00 0.00 47 1014.2
20260903201859 94 18 3.0 9.0 0.00 0.00 0.00 47 1014.1
20260903201800 94 13 4.0 10.0 0.00 0.00 0.00 47 1014.2
20260903201659 94 5 5.0 10.0 0.00 0.00 0.00 46 1014.2
20260903201559 95 11 3.0 10.0 0.00 0.00 0.00 46 1014.3
20260903201502 95 62 2.0 10.0 0.00 0.00 0.00 46 1014.3
20260903201359 96 333 4.0 10.0 0.00 0.00 0.00 46 1014.3
20260903201259 96 335 7.0 10.0 0.00 0.00 0.00 46 1014.3
20260903201200 96 360 6.0 10.0 0.00 0.00 0.00 46 1014.3
20260903200858 96 3 5.0 10.0 0.00 0.00 0.00 46 1014.5
20260903200759 96 4 6.0 10.0 0.00 0.00 0.00 46 1014.4
20260903200559 96 353 3.0 10.0 0.00 0.00 0.00 45 1014.4
20260903200502 96 87 3.0 10.0 0.00 0.00 0.00 45 1014.4
20260903200358 96 33 5.0 10.0 0.00 0.00 0.00 47 1014.4
20260903200259 95 15 4.0 10.0 0.00 0.00 0.00 47 1014.4
20260903200159 95 356 8.0 10.0 0.00 0.00 0.00 48 1014.4
20260903200100 94 339 5.0 8.0 0.00 0.00 0.00 48 1014.4
20260903200003 94 350 5.0 8.0 0.00 0.00 0.00 48 1014.3
20260903195759 94 338 4.0 8.0 0.00 0.00 0.00 47 1014.4
20260903195657 95 323 2.0 8.0 0.00 0.00 0.00 47 1014.4
20260903195558 95 34 2.0 8.0 0.00 0.00 0.00 47 1014.4
20260903195459 95 20 1.0 8.0 0.00 0.00 0.00 48 1014.4
20260903195358 95 336 6.0 8.0 0.00 0.00 0.00 47 1014.5
20260903195258 95 15 6.0 7.0 0.00 0.00 0.00 47 1014.5
20260903195158 95 34 4.0 7.0 0.00 0.00 0.00 47 1014.6
20260903195058 95 49 5.0 7.0 0.00 0.00 0.00 47 1014.6
20260903195001 95 327 4.0 7.0 0.00 0.00 0.00 46 1014.6
20260903194858 96 64 2.0 7.0 0.00 0.00 0.00 46 1014.7
20260903194757 96 354 4.0 7.0 0.00 0.00 0.00 45 1014.7
20260903194557 96 351 4.0 7.0 0.00 0.00 0.00 47 1014.7
20260903194458 95 348 5.0 7.0 0.00 0.00 0.00 46 1014.7
20260903194357 95 8 5.0 7.0 0.00 0.00 0.00 46 1014.7
20260903194257 95 329 5.0 7.0 0.00 0.00 0.00 46 1014.7
20260903194159 95 316 4.0 8.0 0.00 0.00 0.00 46 1014.7
20260903194058 95 360 6.0 10.0 0.00 0.00 0.00 46 1014.7
20260903194000 95 105 5.0 11.0 0.00 0.00 0.00 46 1014.8
20260903193858 95 343 6.0 11.0 0.00 0.00 0.00 46 1014.8
20260903193757 95 60 1.0 11.0 0.00 0.00 0.00 47 1014.8
20260903193659 95 23 6.0 11.0 0.00 0.00 0.00 47 1015.0
20260903193557 95 13 5.0 11.0 0.00 0.00 0.00 46 1014.8
20260903193500 95 11 7.0 11.0 0.00 0.00 0.00 46 1014.9
20260903193358 95 8 7.0 11.0 0.00 0.00 0.00 46 1014.9
20260903193257 95 6 8.0 11.0 0.00 0.00 0.00 46 1014.9
20260903193058 94 6 7.0 11.0 0.00 0.00 0.00 45 1014.9
20260903193001 94 359 7.0 9.0 0.00 0.00 0.00 47 1014.9
20260903192558 94 10 4.0 7.0 0.00 0.00 0.00 46 1014.8
20260903192458 94 345 3.0 7.0 0.00 0.00 0.00 46 1014.8
20260903192358 94 120 1.0 7.0 0.00 0.00 0.00 47 1014.8
20260903192258 94 3 4.0 7.0 0.00 0.00 0.00 46 1014.8
20260903192158 94 55 3.0 7.0 0.00 0.00 0.00 46 1014.9
20260903192058 94 13 3.0 7.0 0.00 0.00 0.00 46 1014.8
20260903192002 94 111 4.0 7.0 0.00 0.00 0.00 47 1014.8
20260903191859 93 123 5.0 8.0 0.00 0.00 0.00 48 1014.8
20260903191758 93 340 6.0 8.0 0.00 0.00 0.00 48 1014.8
20260903191658 93 135 5.0 10.0 0.00 0.00 0.00 48 1015.0
20260903191500 93 345 4.0 10.0 0.00 0.00 0.00 49 1015.0
20260903191358 93 314 4.0 10.0 0.00 0.00 0.00 49 1015.0
20260903191158 93 18 4.0 10.0 0.00 0.00 0.00 48 1015.0
20260903191002 94 15 6.0 10.0 0.00 0.00 0.00 48 1015.1
20260903190858 94 13 4.0 10.0 0.00 0.00 0.00 48 1015.0
20260903190758 94 32 4.0 10.0 0.00 0.00 0.00 48 1015.0
20260903190658 95 15 4.0 8.0 0.00 0.00 0.00 48 1015.0
20260903190358 95 346 5.0 9.0 0.00 0.00 0.00 47 1015.0
20260903190158 95 8 3.0 9.0 0.00 0.00 0.00 47 1015.0
20260903190058 95 4 6.0 11.0 0.00 0.00 0.00 47 1014.9
20260903190002 95 15 7.0 11.0 0.00 0.00 0.00 47 1015.0
20260903185858 95 4 6.0 11.0 0.00 0.00 0.00 47 1015.0
20260903185759 94 1 6.0 11.0 0.00 0.00 0.00 47 1015.0
20260903185658 94 355 7.0 11.0 0.00 0.00 0.00 48 1015.0
20260903185558 94 46 2.0 11.0 0.00 0.00 0.00 48 1015.0
20260903185501 94 324 4.0 11.0 0.00 0.00 0.00 49 1015.1
20260903185359 94 24 6.0 11.0 0.00 0.00 0.00 49 1015.0
20260903185259 94 279 2.0 11.0 0.00 0.00 0.00 49 1015.0
20260903185158 94 358 3.0 11.0 0.00 0.00 0.00 48 1015.0
20260903185059 94 71 2.0 11.0 0.00 0.00 0.00 48 1015.1
20260903185003 94 23 8.0 11.0 0.00 0.00 0.00 47 1015.2
20260903184900 94 79 8.0 11.0 0.00 0.00 0.00 47 1015.2
20260903184659 94 71 2.0 9.0 0.00 0.00 0.00 48 1015.3
20260903184559 94 13 5.0 9.0 0.00 0.00 0.00 48 1015.4
20260903184500 94 86 3.0 9.0 0.00 0.00 0.00 48 1015.4
20260903184359 94 11 6.0 9.0 0.00 0.00 0.00 47 1015.4
20260903184259 94 6 5.0 9.0 0.00 0.00 0.00 47 1015.4
20260903184058 94 1 4.0 10.0 0.00 0.00 0.00 47 1015.5
20260903183858 93 3 6.0 10.0 0.00 0.00 0.00 47 1015.5
20260903183759 94 39 3.0 10.0 0.00 0.00 0.00 47 1015.5
20260903183559 94 4 6.0 10.0 0.00 0.00 0.00 48 1015.5
20260903183502 94 355 3.0 10.0 0.00 0.00 0.00 48 1015.5
20260903183359 94 342 3.0 10.0 0.00 0.00 0.00 47 1015.5
20260903183159 95 1 8.0 10.0 0.00 0.00 0.00 47 1015.6
20260903183059 95 348 6.0 10.0 0.00 0.00 0.00 48 1015.6
20260903182858 94 347 5.0 10.0 0.00 0.00 0.00 50 1015.6
20260903182800 94 4 7.0 10.0 0.00 0.00 0.00 49 1015.6
20260903182658 94 8 3.0 10.0 0.00 0.00 0.00 48 1015.6
20260903182501 94 8 7.0 9.0 0.00 0.00 0.00 48 1015.7
20260903182400 94 27 8.0 9.0 0.00 0.00 0.00 49 1015.6
20260903182259 94 334 4.0 9.0 0.00 0.00 0.00 49 1015.8
20260903182158 94 13 4.0 8.0 0.00 0.00 0.00 50 1015.7
20260903182058 94 353 4.0 8.0 0.00 0.00 0.00 50 1015.8
20260903182004 94 10 5.0 8.0 0.00 0.00 0.00 49 1015.8
20260903181859 94 322 3.0 8.0 0.00 0.00 0.00 49 1015.8
20260903181659 94 115 6.0 7.0 0.00 0.00 0.00 49 1015.9
20260903181558 94 338 3.0 7.0 0.00 0.00 0.00 49 1015.7
20260903181501 94 346 4.0 7.0 0.00 0.00 0.00 49 1015.8
20260903181400 94 12 6.0 7.0 0.00 0.00 0.00 49 1015.8
20260903181200 94 339 6.0 7.0 0.00 0.00 0.00 49 1015.7
20260903181059 94 4 2.0 7.0 0.00 0.00 0.00 50 1015.7
20260903181003 94 359 6.0 7.0 0.00 0.00 0.00 49 1015.8
20260903180859 93 4 6.0 7.0 0.00 0.00 0.00 50 1015.8
20260903180759 93 8 6.0 8.0 0.00 0.00 0.00 49 1015.8
20260903180658 93 6 6.0 8.0 0.00 0.00 0.00 49 1015.8
20260903180559 93 6 4.0 8.0 0.00 0.00 0.00 48 1015.7
20260903180500 94 108 4.0 8.0 0.00 0.00 0.00 48 1015.8
20260903180400 94 6 5.0 8.0 0.00 0.00 0.00 48 1015.8
20260903180301 94 5 6.0 8.0 0.00 0.00 0.00 49 1015.8
20260903180158 94 74 2.0 8.0 0.00 0.00 0.00 50 1015.8
20260903180058 94 11 7.0 8.0 0.00 0.00 0.00 51 1015.9
20260903180003 94 351 3.0 8.0 0.00 0.00 0.00 51 1015.9
20260903175858 93 346 5.0 8.0 0.00 0.00 0.00 52 1015.9
20260903175757 92 26 8.0 8.0 0.00 0.00 0.00 52 1015.9
20260903175657 92 22 3.0 7.0 0.00 0.00 0.00 53 1016.0
20260903175557 92 6 3.0 9.0 0.00 0.00 0.00 52 1016.0
20260903175458 92 48 5.0 10.0 0.00 0.00 0.00 53 1016.0
20260903175359 92 341 1.0 10.0 0.00 0.00 0.00 53 1016.0
20260903175257 92 352 4.0 10.0 0.00 0.00 0.00 52 1016.0
20260903175158 92 44 2.0 10.0 0.00 0.00 0.00 52 1016.1
20260903175058 92 349 6.0 10.0 0.00 0.00 0.00 52 1016.0
20260903175002 92 336 5.0 10.0 0.00 0.00 0.00 52 1016.0
20260903174858 92 329 4.0 10.0 0.00 0.00 0.00 51 1016.0
20260903174758 93 360 3.0 10.0 0.00 0.00 0.00 51 1016.1
20260903174657 93 359 7.0 10.0 0.00 0.00 0.00 52 1016.0
20260903174459 93 352 5.0 8.0 0.00 0.00 0.00 51 1016.0
20260903174258 93 11 3.0 8.0 0.00 0.00 0.00 52 1015.9
20260903174158 93 27 4.0 8.0 0.00 0.00 0.00 52 1015.9
20260903174058 93 359 4.0 8.0 0.00 0.00 0.00 53 1016.0
20260903174000 92 343 3.0 8.0 0.00 0.00 0.00 53 1015.9
20260903173758 92 15 5.0 8.0 0.00 0.00 0.00 53 1016.0
20260903173657 92 356 2.0 8.0 0.00 0.00 0.00 53 1015.9
20260903173558 92 44 5.0 8.0 0.00 0.00 0.00 54 1015.9
20260903173459 92 359 6.0 8.0 0.00 0.00 0.00 53 1015.9
20260903173258 92 359 6.0 8.0 0.00 0.00 0.00 53 1016.0
20260903173157 92 341 7.0 8.0 0.00 0.00 0.00 53 1016.0
20260903173057 92 17 6.0 8.0 0.00 0.00 0.00 53 1016.0
20260903173002 92 10 2.0 8.0 0.00 0.00 0.00 52 1015.9
20260903172858 92 348 4.0 8.0 0.00 0.00 0.00 52 1016.1
20260903172758 93 348 4.0 8.0 0.00 0.00 0.00 52 1016.1
20260903172658 93 4 3.0 8.0 0.00 0.00 0.00 52 1016.2
20260903172558 93 66 3.0 8.0 0.00 0.00 0.00 52 1016.2
20260903172459 93 39 3.0 8.0 0.00 0.00 0.00 53 1016.1
20260903172358 93 355 4.0 8.0 0.00 0.00 0.00 53 1016.2
20260903172257 93 8 6.0 8.0 0.00 0.00 0.00 54 1016.1
20260903172157 92 15 3.0 8.0 0.00 0.00 0.00 53 1016.1
20260903172057 92 360 2.0 8.0 0.00 0.00 0.00 53 1016.1
20260903172000 93 351 6.0 8.0 0.00 0.00 0.00 54 1016.2
20260903171858 92 354 3.0 9.0 0.00 0.00 0.00 55 1016.2
20260903171758 92 1 6.0 9.0 0.00 0.00 0.00 55 1016.2
20260903171658 92 338 4.0 9.0 0.00 0.00 0.00 54 1016.2
20260903171559 92 82 6.0 9.0 0.00 0.00 0.00 55 1016.2
20260903171459 92 5 3.0 9.0 0.00 0.00 0.00 54 1016.2
20260903171259 92 359 6.0 9.0 0.00 0.00 0.00 55 1016.2
20260903171158 92 1 3.0 9.0 0.00 0.00 0.00 55 1016.2
20260903171000 92 351 3.0 8.0 0.00 0.00 0.00 56 1016.2
20260903170858 92 43 5.0 8.0 0.00 0.00 0.00 55 1016.2
20260903170758 92 118 3.0 9.0 0.00 0.00 0.00 56 1016.2
20260903170657 92 345 6.0 9.0 0.00 0.00 0.00 55 1016.2
20260903170558 92 5 4.0 9.0 0.00 0.00 0.00 54 1016.3
20260903170459 92 26 1.0 9.0 0.00 0.00 0.00 55 1016.4
20260903170359 92 355 4.0 9.0 0.00 0.00 0.00 55 1016.3
20260903170258 91 349 3.0 9.0 0.00 0.00 0.00 56 1016.3
20260903170159 91 359 4.0 9.0 0.00 0.00 0.00 55 1016.3
20260903170057 91 20 4.0 9.0 0.00 0.00 0.00 55 1016.3
20260903165858 91 4 8.0 9.0 0.00 0.00 0.00 55 1016.3
20260903165757 92 343 5.0 8.0 0.00 0.00 0.00 56 1016.4
20260903165357 91 352 5.0 8.0 0.00 0.00 0.00 55 1016.4
20260903165059 91 339 4.0 7.0 0.00 0.00 0.00 56 1016.6
20260903165000 91 25 4.0 9.0 0.00 0.00 0.00 55 1016.6
20260903164857 91 329 1.0 9.0 0.00 0.00 0.00 56 1016.6
20260903164758 91 350 3.0 9.0 0.00 0.00 0.00 55 1016.6
20260903164557 91 328 2.0 9.0 0.00 0.00 0.00 56 1016.6
20260903164458 91 294 3.0 9.0 0.00 0.00 0.00 55 1016.5
20260903164358 91 356 3.0 9.0 0.00 0.00 0.00 56 1016.5
20260903164257 91 11 5.0 9.0 0.00 0.00 0.00 56 1016.6
20260903164158 91 353 5.0 9.0 0.00 0.00 0.00 57 1016.6
20260903164003 91 313 4.0 8.0 0.00 0.00 0.00 55 1016.5
20260903163857 91 85 2.0 8.0 0.00 0.00 0.00 55 1016.6
20260903163659 91 346 5.0 8.0 0.00 0.00 0.00 56 1016.6
20260903163558 91 13 7.0 8.0 0.00 0.00 0.00 55 1016.5
20260903163159 92 360 6.0 9.0 0.00 0.00 0.00 58 1016.6
20260903163000 91 345 5.0 9.0 0.00 0.00 0.00 59 1016.6
20260903162758 90 342 4.0 9.0 0.00 0.00 0.00 60 1016.6
20260903162657 90 337 4.0 9.0 0.00 0.00 0.00 59 1016.5
20260903162557 90 20 4.0 9.0 0.00 0.00 0.00 59 1016.6
20260903162458 90 15 4.0 9.0 0.00 0.00 0.00 59 1016.6
20260903162357 90 13 7.0 9.0 0.00 0.00 0.00 58 1016.6
20260903162257 90 10 6.0 7.0 0.00 0.00 0.00 58 1016.6
20260903162158 90 6 6.0 6.0 0.00 0.00 0.00 58 1016.6
20260903162057 90 92 3.0 8.0 0.00 0.00 0.00 58 1016.6
20260903161859 90 357 5.0 8.0 0.00 0.00 0.00 59 1016.6
20260903161558 91 70 2.0 8.0 0.00 0.00 0.00 57 1016.7
20260903161459 91 348 4.0 8.0 0.00 0.00 0.00 57 1016.8
20260903161357 92 330 0.0 8.0 0.00 0.00 0.00 58 1016.8
20260903161258 91 19 2.0 8.0 0.00 0.00 0.00 58 1016.7
20260903161159 91 355 5.0 7.0 0.00 0.00 0.00 57 1016.8
20260903161057 92 354 2.0 7.0 0.00 0.00 0.00 58 1016.8
20260903161000 91 8 5.0 7.0 0.00 0.00 0.00 57 1016.8
20260903160857 91 130 3.0 7.0 0.00 0.00 0.00 58 1016.7
20260903160758 91 353 3.0 8.0 0.00 0.00 0.00 57 1016.7
20260903160657 91 336 3.0 8.0 0.00 0.00 0.00 57 1016.8
20260903160557 91 330 4.0 8.0 0.00 0.00 0.00 57 1016.8
20260903160459 91 360 7.0 8.0 0.00 0.00 0.00 57 1016.7
20260903160359 91 351 6.0 8.0 0.00 0.00 0.00 59 1016.7
20260903160258 91 350 5.0 8.0 0.00 0.00 0.00 59 1016.7
20260903160159 90 356 5.0 8.0 0.00 0.00 0.00 58 1016.6
20260903160004 90 331 4.0 8.0 0.00 0.00 0.00 58 1016.6
20260903155858 90 324 7.0 8.0 0.00 0.00 0.00 58 1016.6
20260903155758 90 310 3.0 8.0 0.00 0.00 0.00 59 1016.7
20260903155657 90 13 6.0 8.0 0.00 0.00 0.00 58 1016.6
20260903155557 90 55 3.0 9.0 0.00 0.00 0.00 58 1016.6
20260903155459 90 359 3.0 9.0 0.00 0.00 0.00 58 1016.7
20260903155258 90 352 4.0 9.0 0.00 0.00 0.00 58 1016.7
20260903155157 90 336 5.0 9.0 0.00 0.00 0.00 58 1016.7
20260903155058 91 4 6.0 9.0 0.00 0.00 0.00 59 1016.8
20260903155000 90 356 4.0 9.0 0.00 0.00 0.00 59 1016.7
20260903154857 90 357 3.0 9.0 0.00 0.00 0.00 58 1016.7
20260903154757 91 353 5.0 9.0 0.00 0.00 0.00 59 1016.8
20260903154658 90 11 6.0 9.0 0.00 0.00 0.00 60 1016.7
20260903154558 90 6 6.0 9.0 0.00 0.00 0.00 60 1016.7
20260903154459 89 4 3.0 9.0 0.00 0.00 0.00 60 1016.7
20260903154357 89 354 4.0 9.0 0.00 0.00 0.00 60 1016.7
20260903154258 89 349 5.0 8.0 0.00 0.00 0.00 60 1016.6
20260903154158 89 334 5.0 7.0 0.00 0.00 0.00 60 1016.7
20260903154058 89 11 7.0 7.0 0.00 0.00 0.00 61 1016.8
20260903154002 89 118 4.0 7.0 0.00 0.00 0.00 61 1016.8
20260903153858 89 26 6.0 7.0 0.00 0.00 0.00 61 1016.8
20260903153800 89 41 3.0 7.0 0.00 0.00 0.00 61 1016.8
20260903153558 89 10 5.0 7.0 0.00 0.00 0.00 61 1016.9
20260903153458 89 91 1.0 7.0 0.00 0.00 0.00 61 1016.9
20260903153358 89 116 0.0 7.0 0.00 0.00 0.00 63 1016.9
20260903153158 89 347 5.0 7.0 0.00 0.00 0.00 63 1016.9
20260903153058 89 354 4.0 7.0 0.00 0.00 0.00 63 1016.9
20260903152900 88 19 5.0 7.0 0.00 0.00 0.00 64 1016.9
20260903152758 88 347 5.0 7.0 0.00 0.00 0.00 63 1016.9
20260903152657 88 45 3.0 7.0 0.00 0.00 0.00 63 1016.8
20260903152608 88 360 3.0 7.0 0.00 0.00 0.00 62 1016.9
20260903152459 88 360 4.0 7.0 0.00 0.00 0.00 63 1016.9
20260903152357 88 22 1.0 7.0 0.00 0.00 0.00 63 1016.8
20260903152158 88 11 6.0 7.0 0.00 0.00 0.00 64 1016.9
20260903152058 88 4 6.0 7.0 0.00 0.00 0.00 64 1016.8
20260903152000 88 110 3.0 7.0 0.00 0.00 0.00 64 1016.8
20260903151859 88 358 4.0 7.0 0.00 0.00 0.00 64 1016.8
20260903151758 88 22 5.0 7.0 0.00 0.00 0.00 64 1016.8
20260903151658 88 352 5.0 8.0 0.00 0.00 0.00 65 1016.8
20260903151557 88 353 6.0 8.0 0.00 0.00 0.00 65 1016.8
20260903151459 88 336 4.0 8.0 0.00 0.00 0.00 65 1016.7
20260903151359 88 350 3.0 8.0 0.00 0.00 0.00 66 1016.7
20260903151258 87 330 4.0 8.0 0.00 0.00 0.00 67 1016.8
20260903151058 86 352 4.0 8.0 0.00 0.00 0.00 68 1016.8
20260903151002 86 339 4.0 8.0 0.00 0.00 0.00 66 1016.8
20260903150858 87 342 4.0 8.0 0.00 0.00 0.00 66 1016.7
20260903150758 87 338 7.0 8.0 0.00 0.00 0.00 66 1016.8
20260903150658 87 329 4.0 6.0 0.00 0.00 0.00 66 1016.8
20260903150459 87 348 2.0 7.0 0.00 0.00 0.00 66 1017.0
20260903150159 87 334 4.0 7.0 0.00 0.00 0.00 66 1017.0
20260903150057 87 350 3.0 7.0 0.00 0.00 0.00 66 1017.1
20260903150004 87 60 2.0 7.0 0.00 0.00 0.00 66 1017.0
20260903145758 87 344 5.0 7.0 0.00 0.00 0.00 68 1017.0
20260903145658 87 359 5.0 6.0 0.00 0.00 0.00 69 1016.9
20260903145557 86 19 5.0 6.0 0.00 0.00 0.00 68 1016.9
20260903145258 86 354 4.0 6.0 0.00 0.00 0.00 69 1017.0
20260903145058 86 341 3.0 6.0 0.00 0.00 0.00 69 1016.9
20260903145003 86 343 4.0 6.0 0.00 0.00 0.00 68 1017.0
20260903144858 86 359 4.0 6.0 0.00 0.00 0.00 69 1017.0
20260903144757 86 336 3.0 6.0 0.00 0.00 0.00 69 1017.0
20260903144658 86 342 3.0 6.0 0.00 0.00 0.00 69 1016.9
20260903144557 86 325 5.0 6.0 0.00 0.00 0.00 70 1016.9
20260903144158 85 22 2.0 6.0 0.00 0.00 0.00 70 1016.9
20260903144058 85 303 2.0 6.0 0.00 0.00 0.00 70 1017.0
20260903144003 85 103 3.0 6.0 0.00 0.00 0.00 70 1017.0
20260903143757 85 59 4.0 6.0 0.00 0.00 0.00 71 1017.0
20260903143659 85 117 2.0 6.0 0.00 0.00 0.00 70 1017.0
20260903143558 85 357 4.0 6.0 0.00 0.00 0.00 70 1017.0
20260903143459 85 41 1.0 6.0 0.00 0.00 0.00 70 1017.0
20260903143358 85 359 5.0 6.0 0.00 0.00 0.00 69 1017.0
20260903143158 86 349 3.0 5.0 0.00 0.00 0.00 70 1017.0
20260903143000 85 4 2.0 6.0 0.00 0.00 0.00 71 1017.0
20260903142858 85 3 4.0 6.0 0.00 0.00 0.00 71 1017.1
20260903142758 85 349 0.0 6.0 0.00 0.00 0.00 71 1017.0
20260903142657 85 53 2.0 6.0 0.00 0.00 0.00 71 1017.0
20260903142558 85 37 0.0 6.0 0.00 0.00 0.00 72 1017.0
20260903142257 84 27 0.0 6.0 0.00 0.00 0.00 72 1017.0
20260903142158 84 348 4.0 6.0 0.00 0.00 0.00 72 1017.0
20260903142058 84 343 3.0 5.0 0.00 0.00 0.00 72 1017.2
20260903142001 84 359 5.0 5.0 0.00 0.00 0.00 73 1017.0
20260903141858 84 357 3.0 5.0 0.00 0.00 0.00 73 1017.1
20260903141758 84 8 4.0 5.0 0.00 0.00 0.00 73 1017.1
20260903141657 84 67 0.0 5.0 0.00 0.00 0.00 73 1017.1
20260903141558 84 53 0.0 5.0 0.00 0.00 0.00 73 1017.1
20260903141459 84 1 4.0 5.0 0.00 0.00 0.00 73 1017.1
20260903141258 84 349 4.0 5.0 0.00 0.00 0.00 73 1017.0
20260903141157 84 333 3.0 5.0 0.00 0.00 0.00 72 1017.1
20260903141058 84 340 4.0 5.0 0.00 0.00 0.00 73 1017.1
20260903141001 84 340 4.0 5.0 0.00 0.00 0.00 73 1017.1
20260903140858 84 13 2.0 5.0 0.00 0.00 0.00 73 1017.1
20260903140757 84 13 2.0 5.0 0.00 0.00 0.00 73 1017.1
20260903140558 83 12 3.0 5.0 0.00 0.00 0.00 73 1017.1
20260903140459 83 345 0.0 5.0 0.00 0.00 0.00 73 1017.1
20260903140358 83 57 3.0 5.0 0.00 0.00 0.00 74 1017.2
20260903140258 83 360 3.0 5.0 0.00 0.00 0.00 73 1017.1
20260903140058 83 347 3.0 5.0 0.00 0.00 0.00 74 1017.0
20260903140002 83 60 2.0 5.0 0.00 0.00 0.00 74 1017.0
20260903135859 83 79 0.0 5.0 0.00 0.00 0.00 73 1017.0
20260903135758 84 104 0.0 5.0 0.00 0.00 0.00 73 1017.0
20260903135657 84 44 3.0 5.0 0.00 0.00 0.00 74 1017.0
20260903135558 84 333 3.0 5.0 0.00 0.00 0.00 74 1016.9
20260903135459 84 338 2.0 5.0 0.00 0.00 0.00 73 1017.0
20260903135358 84 34 1.0 5.0 0.00 0.00 0.00 73 1016.9
20260903135258 84 13 2.0 5.0 0.00 0.00 0.00 74 1017.0
20260903135158 84 345 3.0 5.0 0.00 0.00 0.00 74 1016.9
20260903135002 83 348 1.0 5.0 0.00 0.00 0.00 74 1017.0
20260903134858 83 357 4.0 5.0 0.00 0.00 0.00 75 1016.9
20260903134758 83 328 1.0 5.0 0.00 0.00 0.00 75 1016.8
20260903134658 83 352 4.0 5.0 0.00 0.00 0.00 75 1017.0
20260903134458 83 333 3.0 5.0 0.00 0.00 0.00 75 1016.9
20260903134358 83 23 0.0 5.0 0.00 0.00 0.00 74 1017.0
20260903134258 83 81 0.0 5.0 0.00 0.00 0.00 74 1016.9
20260903134158 83 96 4.0 5.0 0.00 0.00 0.00 74 1017.0
20260903134000 83 1 2.0 5.0 0.00 0.00 0.00 75 1017.0
20260903133857 83 299 2.0 5.0 0.00 0.00 0.00 74 1016.9
20260903133757 83 354 1.0 5.0 0.00 0.00 0.00 75 1016.9
20260903133557 83 354 3.0 5.0 0.00 0.00 0.00 76 1016.9
20260903133459 83 352 3.0 5.0 0.00 0.00 0.00 76 1016.9
20260903133358 83 345 4.0 5.0 0.00 0.00 0.00 76 1016.9
20260903133258 82 356 3.0 5.0 0.00 0.00 0.00 76 1016.9
20260903133157 82 326 0.0 5.0 0.00 0.00 0.00 76 1016.8
20260903133058 82 335 3.0 5.0 0.00 0.00 0.00 76 1016.9
20260903133000 83 335 4.0 5.0 0.00 0.00 0.00 76 1016.8
20260903132858 83 335 4.0 5.0 0.00 0.00 0.00 76 1016.8
20260903132759 82 349 3.0 5.0 0.00 0.00 0.00 76 1016.8
20260903132657 82 340 3.0 5.0 0.00 0.00 0.00 76 1016.8
20260903132557 82 333 3.0 5.0 0.00 0.00 0.00 77 1016.8
20260903132458 82 326 3.0 5.0 0.00 0.00 0.00 77 1016.8
20260903132357 82 1 4.0 4.0 0.00 0.00 0.00 77 1016.8
20260903132258 82 330 3.0 4.0 0.00 0.00 0.00 77 1016.9
20260903132158 82 350 2.0 4.0 0.00 0.00 0.00 78 1016.8
20260903132057 82 350 2.0 4.0 0.00 0.00 0.00 78 1016.9
20260903132000 81 6 0.0 4.0 0.00 0.00 0.00 78 1016.9
20260903131858 81 1 2.0 4.0 0.00 0.00 0.00 77 1016.9
20260903131758 81 125 1.0 4.0 0.00 0.00 0.00 78 1016.9
20260903131658 81 15 0.0 4.0 0.00 0.00 0.00 78 1016.9
20260903131558 81 112 0.0 4.0 0.00 0.00 0.00 78 1016.9
20260903131357 81 360 2.0 4.0 0.00 0.00 0.00 78 1016.8
20260903131257 81 350 1.0 4.0 0.00 0.00 0.00 78 1016.9
20260903131158 81 79 0.0 4.0 0.00 0.00 0.00 79 1016.9
20260903131000 81 338 3.0 4.0 0.00 0.00 0.00 79 1016.9
20260903130858 81 359 2.0 4.0 0.00 0.00 0.00 79 1016.9
20260903130658 80 348 2.0 4.0 0.00 0.00 0.00 78 1016.9
20260903130557 81 335 3.0 4.0 0.00 0.00 0.00 79 1016.9
20260903130358 81 322 1.0 4.0 0.00 0.00 0.00 79 1016.8
20260903130258 81 327 1.0 4.0 0.00 0.00 0.00 79 1016.8
20260903130157 80 354 2.0 4.0 0.00 0.00 0.00 79 1016.9
20260903130058 80 350 2.0 4.0 0.00 0.00 0.00 79 1016.8
20260903130003 80 78 0.0 4.0 0.00 0.00 0.00 80 1016.8
20260903125857 80 79 2.0 5.0 0.00 0.00 0.00 80 1016.8
20260903125758 80 342 2.0 5.0 0.00 0.00 0.00 80 1016.8
20260903125659 80 354 2.0 5.0 0.00 0.00 0.00 80 1016.7
20260903125558 80 327 3.0 5.0 0.00 0.00 0.00 81 1016.7
20260903125500 79 342 3.0 5.0 0.00 0.00 0.00 81 1016.7
20260903125157 79 342 3.0 5.0 0.00 0.00 0.00 81 1016.7
20260903125002 79 336 4.0 4.0 0.00 0.00 0.00 81 1016.7
20260903124857 79 326 2.0 4.0 0.00 0.00 0.00 81 1016.7
20260903124758 79 333 3.0 3.0 0.00 0.00 0.00 81 1016.7
20260903124658 79 342 1.0 2.0 0.00 0.00 0.00 81 1016.7
20260903124557 79 350 2.0 2.0 0.00 0.00 0.00 81 1016.7
20260903124500 79 340 0.0 2.0 0.00 0.00 0.00 82 1016.7
20260903124257 79 323 0.0 2.0 0.00 0.00 0.00 82 1016.6
20260903124157 79 328 0.0 2.0 0.00 0.00 0.00 82 1016.7
20260903124058 79 262 0.0 3.0 0.00 0.00 0.00 82 1016.7
20260903123757 78 302 0.0 3.0 0.00 0.00 0.00 83 1016.7
20260903123657 78 316 0.0 3.0 0.00 0.00 0.00 83 1016.6
20260903123558 78 314 1.0 3.0 0.00 0.00 0.00 83 1016.6
20260903123357 78 287 0.0 3.0 0.00 0.00 0.00 83 1016.6
20260903123258 78 293 2.0 3.0 0.00 0.00 0.00 83 1016.6
20260903123158 78 293 2.0 3.0 0.00 0.00 0.00 84 1016.5
20260903122959 78 307 1.0 3.0 0.00 0.00 0.00 84 1016.6
20260903122857 77 288 2.0 3.0 0.00 0.00 0.00 84 1016.6
20260903122658 77 317 1.0 3.0 0.00 0.00 0.00 84 1016.5
20260903122559 77 298 2.0 3.0 0.00 0.00 0.00 84 1016.5
20260903122459 77 289 1.0 3.0 0.00 0.00 0.00 84 1016.5
20260903122358 77 304 0.0 3.0 0.00 0.00 0.00 84 1016.5
20260903122259 77 301 2.0 3.0 0.00 0.00 0.00 84 1016.4
20260903122159 77 314 3.0 3.0 0.00 0.00 0.00 85 1016.5
20260903122058 77 297 3.0 3.0 0.00 0.00 0.00 85 1016.5
20260903121858 77 319 3.0 3.0 0.00 0.00 0.00 85 1016.4
20260903121757 77 303 2.0 3.0 0.00 0.00 0.00 85 1016.5
20260903121658 77 295 2.0 3.0 0.00 0.00 0.00 85 1016.4
20260903121558 76 303 2.0 4.0 0.00 0.00 0.00 85 1016.4
20260903121459 76 319 3.0 4.0 0.00 0.00 0.00 85 1016.4
20260903121357 76 314 3.0 4.0 0.00 0.00 0.00 85 1016.4
20260903121258 76 328 3.0 4.0 0.00 0.00 0.00 85 1016.4
20260903121158 76 312 2.0 4.0 0.00 0.00 0.00 86 1016.3
20260903121058 76 317 1.0 4.0 0.00 0.00 0.00 86 1016.4
20260903120858 76 345 2.0 4.0 0.00 0.00 0.00 86 1016.3
20260903120758 76 331 2.0 4.0 0.00 0.00 0.00 86 1016.3
20260903120658 76 328 2.0 3.0 0.00 0.00 0.00 86 1016.3
20260903120558 76 347 3.0 3.0 0.00 0.00 0.00 86 1016.3
20260903120357 76 333 2.0 3.0 0.00 0.00 0.00 86 1016.3
20260903120257 76 347 3.0 3.0 0.00 0.00 0.00 86 1016.2
20260903120158 76 354 2.0 3.0 0.00 0.00 0.00 86 1016.3
20260903120057 75 333 2.0 3.0 0.00 0.00 0.00 86 1016.3
20260903120000 75 333 3.0 3.0 0.00 0.00 0.00 87 1016.3
20260903115857 75 331 2.0 3.0 0.00 0.00 0.00 87 1016.3
20260903115757 75 319 2.0 3.0 0.00 0.00 0.00 87 1016.2
20260903115658 75 335 1.0 3.0 0.00 0.00 0.00 87 1016.3
20260903115557 75 316 2.0 3.0 0.00 0.00 0.00 87 1016.2
20260903115501 75 340 2.0 3.0 0.00 0.00 0.00 87 1016.2
20260903115357 75 316 2.0 3.0 0.00 0.00 0.00 87 1016.3
20260903115258 75 333 2.0 3.0 0.00 0.00 0.00 87 1016.3
20260903115157 75 309 1.0 3.0 0.00 0.00 0.00 87 1016.3
20260903115057 75 309 0.0 3.0 0.00 0.00 0.00 87 1016.2
20260903115002 75 321 1.0 3.0 0.00 0.00 0.00 87 1016.3
20260903114857 75 326 0.0 3.0 0.00 0.00 0.00 87 1016.3
20260903114759 75 328 2.0 3.0 0.00 0.00 0.00 87 1016.2
20260903114658 75 326 2.0 3.0 0.00 0.00 0.00 87 1016.2
20260903114500 75 321 2.0 3.0 0.00 0.00 0.00 87 1016.2
20260903114358 75 333 2.0 3.0 0.00 0.00 0.00 87 1016.1
20260903114258 75 321 3.0 3.0 0.00 0.00 0.00 87 1016.1
20260903114058 75 335 2.0 3.0 0.00 0.00 0.00 87 1016.1
20260903114003 75 319 2.0 3.0 0.00 0.00 0.00 86 1016.2
20260903113858 75 323 2.0 3.0 0.00 0.00 0.00 87 1016.2
20260903113757 75 323 2.0 3.0 0.00 0.00 0.00 87 1016.1
20260903113358 75 305 2.0 3.0 0.00 0.00 0.00 87 1016.1
20260903113258 75 316 2.0 2.0 0.00 0.00 0.00 86 1016.1
20260903113157 75 319 2.0 2.0 0.00 0.00 0.00 87 1016.1
20260903113057 75 321 2.0 2.0 0.00 0.00 0.00 86 1016.1
20260903113000 75 317 0.0 2.0 0.00 0.00 0.00 86 1016.1
20260903112857 75 317 1.0 2.0 0.00 0.00 0.00 86 1016.0
20260903112657 75 321 2.0 2.0 0.00 0.00 0.00 86 1016.1
20260903112559 75 345 0.0 2.0 0.00 0.00 0.00 86 1016.1
20260903112459 75 345 0.0 2.0 0.00 0.00 0.00 86 1016.1
20260903112358 75 338 0.0 2.0 0.00 0.00 0.00 86 1016.1
20260903112058 75 337 0.0 2.0 0.00 0.00 0.00 86 1016.0
20260903112002 75 326 0.0 2.0 0.00 0.00 0.00 86 1016.0